KD7KJJ Weather Reports


time (UTC)temp
C
wind
direction
speed
KPH
gust
KPH
rain 1hr
cm
rain 24hr
cm
rain mn
cm
humidity
%
barometer
mb
20260507182610 22 294 3.2 11.3 0.00 0.00 0.00 69 1009.6
20260507182531 22 277 4.8 11.3 0.00 0.00 0.00 69 1009.7
20260507182431 22 269 3.2 11.3 0.00 0.00 0.00 70 1009.5
20260507182310 22 257 3.2 11.3 0.00 0.00 0.00 70 1009.6
20260507182210 22 222 3.2 11.3 0.00 0.00 0.00 71 1009.6
20260507182131 22 226 3.2 11.3 0.00 0.00 0.00 70 1009.6
20260507182010 22 263 1.6 11.3 0.00 0.00 0.00 69 1009.8
20260507181910 22 206 3.2 11.3 0.00 0.00 0.00 69 1009.7
20260507181810 22 142 4.8 11.3 0.00 0.00 0.00 68 1009.7
20260507181710 22 134 3.2 11.3 0.00 0.00 0.00 69 1009.6
20260507181610 22 131 3.2 9.7 0.00 0.00 0.00 69 1009.6
20260507181531 22 128 4.8 9.7 0.00 0.00 0.00 69 1009.6
20260507181431 22 118 3.2 11.3 0.00 0.00 0.00 70 1009.6
20260507181310 22 132 1.6 11.3 0.00 0.00 0.00 69 1009.6
20260507181210 22 146 1.6 11.3 0.00 0.00 0.00 69 1009.5
20260507181131 22 147 1.6 11.3 0.00 0.00 0.00 69 1009.5
20260507181031 22 147 3.2 11.3 0.00 0.00 0.00 69 1009.5
20260507180910 22 128 3.2 11.3 0.00 0.00 0.00 71 1009.7
20260507180810 22 117 3.2 11.3 0.00 0.00 0.00 71 1009.7
20260507180710 22 113 3.2 11.3 0.00 0.00 0.00 71 1009.7
20260507180631 22 105 3.2 11.3 0.00 0.00 0.00 71 1009.6
20260507180510 22 355 3.2 11.3 0.00 0.00 0.00 71 1009.7
20260507180410 22 321 1.6 9.7 0.00 0.00 0.00 72 1009.7
20260507180310 22 334 3.2 9.7 0.00 0.00 0.00 71 1009.7
20260507180210 22 335 3.2 9.7 0.00 0.00 0.00 70 1009.6
20260507180110 22 7 3.2 9.7 0.00 0.00 0.00 70 1009.7
20260507180010 22 26 3.2 9.7 0.00 0.00 0.00 70 1009.6
20260507175931 22 15 3.2 9.7 0.00 0.00 0.00 70 1009.6
20260507175810 22 313 3.2 11.3 0.00 0.00 0.00 70 1009.6
20260507175710 22 314 3.2 11.3 0.00 0.00 0.00 71 1009.7
20260507175610 22 335 3.2 11.3 0.00 0.00 0.00 72 1009.7
20260507175510 22 341 3.2 11.3 0.00 0.00 0.00 72 1009.8
20260507175410 22 321 3.2 11.3 0.00 0.00 0.00 71 1009.7
20260507175310 22 319 3.2 11.3 0.00 0.00 0.00 71 1009.7
20260507175210 22 353 3.2 11.3 0.00 0.00 0.00 71 1009.7
20260507175110 22 335 3.2 11.3 0.00 0.00 0.00 71 1009.7
20260507175031 22 306 3.2 11.3 0.00 0.00 0.00 71 1009.7
20260507174910 22 124 4.8 11.3 0.00 0.00 0.00 71 1009.8
20260507174810 22 123 3.2 11.3 0.00 0.00 0.00 72 1009.8
20260507174710 22 140 1.6 11.3 0.00 0.00 0.00 71 1009.7
20260507174610 22 168 1.6 9.7 0.00 0.00 0.00 71 1009.7
20260507174510 22 170 1.6 9.7 0.00 0.00 0.00 71 1009.6
20260507174410 22 155 1.6 9.7 0.00 0.00 0.00 71 1009.7
20260507174310 22 153 3.2 9.7 0.00 0.00 0.00 71 1009.7
20260507174210 22 166 3.2 9.7 0.00 0.00 0.00 71 1009.8
20260507174110 22 172 3.2 9.7 0.00 0.00 0.00 70 1009.8
20260507174010 22 178 3.2 9.7 0.00 0.00 0.00 69 1009.8
20260507173910 22 185 3.2 9.7 0.00 0.00 0.00 68 1009.7
20260507173810 22 182 4.8 9.7 0.00 0.00 0.00 67 1009.7
20260507173710 22 186 1.6 8.0 0.00 0.00 0.00 69 1009.7
20260507173610 22 180 1.6 8.0 0.00 0.00 0.00 71 1009.7
20260507173510 22 172 3.2 8.0 0.00 0.00 0.00 72 1009.8
20260507173410 22 200 3.2 8.0 0.00 0.00 0.00 72 1009.7
20260507173310 22 204 3.2 6.4 0.00 0.00 0.00 72 1009.6
20260507173210 21 205 1.6 6.4 0.00 0.00 0.00 73 1009.7
20260507173110 21 204 0.0 6.4 0.00 0.00 0.00 72 1009.7
20260507173010 21 210 1.6 6.4 0.00 0.00 0.00 72 1009.8
20260507172910 21 212 3.2 6.4 0.00 0.00 0.00 72 1009.8
20260507172810 21 218 3.2 6.4 0.00 0.00 0.00 72 1009.8
20260507172710 21 210 1.6 6.4 0.00 0.00 0.00 72 1009.8
20260507172610 21 198 1.6 4.8 0.00 0.00 0.00 72 1009.8
20260507172510 21 203 1.6 4.8 0.00 0.00 0.00 72 1009.7
20260507172410 21 196 1.6 4.8 0.00 0.00 0.00 73 1009.8
20260507172310 21 205 1.6 4.8 0.00 0.00 0.00 73 1009.9
20260507172210 21 189 1.6 8.0 0.00 0.00 0.00 74 1009.9
20260507172110 21 205 1.6 8.0 0.00 0.00 0.00 74 1009.8
20260507172010 21 208 1.6 8.0 0.00 0.00 0.00 73 1009.9
20260507171931 21 212 1.6 8.0 0.00 0.00 0.00 73 1009.9
20260507171810 21 0 0.0 8.0 0.00 0.00 0.00 74 1010.0
20260507171710 21 263 1.6 8.0 0.00 0.00 0.00 74 1009.8
20260507171610 21 0 0.0 8.0 0.00 0.00 0.00 75 1009.9
20260507171510 21 274 0.0 8.0 0.00 0.00 0.00 74 1010.1
20260507171431 21 277 1.6 8.0 0.00 0.00 0.00 74 1009.9
20260507171331 21 283 1.6 8.0 0.00 0.00 0.00 74 1009.8
20260507171210 21 272 3.2 6.4 0.00 0.00 0.00 75 1010.0
20260507171110 21 267 1.6 6.4 0.00 0.00 0.00 75 1009.9
20260507171010 21 265 1.6 6.4 0.00 0.00 0.00 75 1009.9
20260507170910 20 268 3.2 6.4 0.00 0.00 0.00 75 1009.9
20260507170810 20 272 3.2 6.4 0.00 0.00 0.00 75 1009.8
20260507170710 20 267 3.2 6.4 0.00 0.00 0.00 75 1009.9
20260507170610 20 250 3.2 6.4 0.00 0.00 0.00 75 1009.9
20260507170510 20 234 3.2 6.4 0.00 0.00 0.00 75 1010.0
20260507170410 20 193 3.2 6.4 0.00 0.00 0.00 76 1009.9
20260507170310 20 164 1.6 6.4 0.00 0.00 0.00 76 1010.0
20260507170210 20 143 3.2 6.4 0.00 0.00 0.00 76 1010.1
20260507170110 20 126 3.2 6.4 0.00 0.00 0.00 76 1010.0
20260507170010 20 121 3.2 6.4 0.00 0.00 0.00 76 1010.0
20260507165910 20 118 1.6 6.4 0.00 0.00 0.00 77 1010.1
20260507165810 20 123 1.6 8.0 0.00 0.00 0.00 77 1010.0
20260507165710 20 126 3.2 8.0 0.00 0.00 0.00 77 1010.0
20260507165610 20 117 1.6 9.7 0.00 0.00 0.00 78 1010.0
20260507165531 20 109 1.6 9.7 0.00 0.00 0.00 78 1010.0
20260507165431 20 101 1.6 9.7 0.00 0.00 0.00 78 1010.0
20260507165310 20 106 1.6 9.7 0.00 0.00 0.00 78 1010.0
20260507165210 20 109 1.6 9.7 0.00 0.00 0.00 78 1010.0
20260507165131 20 112 1.6 9.7 0.00 0.00 0.00 78 1010.0
20260507165010 20 193 1.6 9.7 0.00 0.00 0.00 78 1010.1
20260507164931 20 284 3.2 12.9 0.00 0.00 0.00 78 1010.1
20260507164831 20 288 3.2 12.9 0.00 0.00 0.00 78 1010.1
20260507164710 20 315 4.8 12.9 0.00 0.00 0.00 78 1010.0
20260507164610 20 332 4.8 12.9 0.00 0.00 0.00 78 1010.0
20260507164510 20 332 1.6 12.9 0.00 0.00 0.00 78 1010.0
20260507164410 20 326 1.6 12.9 0.00 0.00 0.00 78 1010.0
20260507164310 20 333 1.6 12.9 0.00 0.00 0.00 78 1010.0
20260507164210 20 317 3.2 12.9 0.00 0.00 0.00 78 1010.0
20260507164110 20 319 3.2 12.9 0.00 0.00 0.00 78 1010.0
20260507164031 20 319 4.8 12.9 0.00 0.00 0.00 78 1010.0
20260507163909 20 300 3.2 8.0 0.00 0.00 0.00 78 1010.0
20260507163810 20 252 3.2 8.0 0.00 0.00 0.00 78 1010.1
20260507163731 20 220 3.2 8.0 0.00 0.00 0.00 78 1010.0
20260507163610 20 253 1.6 8.0 0.00 0.00 0.00 78 1010.0
20260507163531 20 253 1.6 8.0 0.00 0.00 0.00 78 1010.0
20260507163410 20 249 1.6 8.0 0.00 0.00 0.00 78 1010.1
20260507163310 20 227 3.2 8.0 0.00 0.00 0.00 78 1010.0
20260507163210 20 212 0.0 6.4 0.00 0.00 0.00 78 1010.1
20260507163131 20 215 1.6 6.4 0.00 0.00 0.00 78 1010.1
20260507163010 20 228 1.6 6.4 0.00 0.00 0.00 78 1010.1
20260507162910 20 216 3.2 6.4 0.00 0.00 0.00 78 1010.0
20260507162810 20 204 1.6 6.4 0.00 0.00 0.00 78 1009.9
20260507162710 19 213 1.6 6.4 0.00 0.00 0.00 78 1010.0
20260507162610 19 178 3.2 6.4 0.00 0.00 0.00 78 1010.1
20260507162510 19 161 1.6 6.4 0.00 0.00 0.00 78 1009.9
20260507162410 19 144 3.2 6.4 0.00 0.00 0.00 79 1010.1
20260507162310 19 130 1.6 6.4 0.00 0.00 0.00 79 1010.2
20260507162231 19 0 0.0 4.8 0.00 0.00 0.00 80 1010.0
20260507162131 19 0 0.0 4.8 0.00 0.00 0.00 80 1010.1
20260507162009 19 70 1.6 6.4 0.00 0.00 0.00 80 1010.1
20260507161910 19 60 1.6 6.4 0.00 0.00 0.00 80 1010.1
20260507161810 19 0 0.0 6.4 0.00 0.00 0.00 80 1010.2
20260507161710 19 0 0.0 6.4 0.00 0.00 0.00 80 1010.1
20260507161610 19 0 0.0 6.4 0.00 0.00 0.00 80 1010.1
20260507161510 19 0 0.0 6.4 0.00 0.00 0.00 80 1010.1
20260507161410 19 77 0.0 6.4 0.00 0.00 0.00 80 1010.1
20260507161331 19 86 1.6 8.0 0.00 0.00 0.00 80 1010.2
20260507161231 19 92 1.6 8.0 0.00 0.00 0.00 80 1010.0
20260507161110 19 96 3.2 8.0 0.00 0.00 0.00 80 1010.0
20260507161031 19 101 1.6 8.0 0.00 0.00 0.00 80 1010.0
20260507160910 19 103 1.6 8.0 0.00 0.00 0.00 81 1010.0
20260507160810 19 102 3.2 8.0 0.00 0.00 0.00 81 1010.0
20260507160710 18 102 3.2 8.0 0.00 0.00 0.00 80 1010.0
20260507160610 18 105 3.2 8.0 0.00 0.00 0.00 80 1010.0
20260507160510 18 115 1.6 8.0 0.00 0.00 0.00 80 1010.1
20260507160409 18 116 4.8 8.0 0.00 0.00 0.00 80 1010.1
20260507160310 18 96 3.2 8.0 0.00 0.00 0.00 80 1010.1
20260507160210 18 85 3.2 8.0 0.00 0.00 0.00 80 1010.1
20260507160109 18 114 3.2 8.0 0.00 0.00 0.00 80 1010.0
20260507160010 18 162 1.6 8.0 0.00 0.00 0.00 81 1009.9
20260507155910 18 188 1.6 8.0 0.00 0.00 0.00 81 1010.0
20260507155831 18 206 1.6 9.7 0.00 0.00 0.00 81 1010.0
20260507155710 18 225 3.2 9.7 0.00 0.00 0.00 81 1010.0
20260507155610 18 224 1.6 9.7 0.00 0.00 0.00 81 1010.0
20260507155510 18 198 3.2 9.7 0.00 0.00 0.00 81 1010.2
20260507155410 18 199 1.6 9.7 0.00 0.00 0.00 81 1010.1
20260507155310 18 218 1.6 9.7 0.00 0.00 0.00 81 1010.2
20260507155210 18 157 1.6 9.7 0.00 0.00 0.00 82 1010.0
20260507155110 18 178 1.6 9.7 0.00 0.00 0.00 82 1010.0
20260507155010 18 287 1.6 9.7 0.00 0.00 0.00 82 1010.0
20260507154910 18 29 1.6 9.7 0.00 0.00 0.00 82 1010.1
20260507154830 18 147 3.2 9.7 0.00 0.00 0.00 81 1010.0
20260507154710 18 179 3.2 9.7 0.00 0.00 0.00 82 1009.9
20260507154610 18 196 1.6 9.7 0.00 0.00 0.00 83 1009.9
20260507154510 18 217 1.6 9.7 0.00 0.00 0.00 83 1009.9
20260507154431 18 225 3.2 9.7 0.00 0.00 0.00 83 1009.8
20260507154310 18 188 3.2 9.7 0.00 0.00 0.00 83 1009.8
20260507154210 18 221 3.2 8.0 0.00 0.00 0.00 83 1009.8
20260507154131 18 235 1.6 8.0 0.00 0.00 0.00 83 1010.0
20260507154010 18 207 3.2 8.0 0.00 0.00 0.00 83 1010.0
20260507153910 18 210 3.2 8.0 0.00 0.00 0.00 85 1010.0
20260507153810 18 218 3.2 8.0 0.00 0.00 0.00 85 1010.0
20260507153710 18 197 3.2 9.7 0.00 0.00 0.00 85 1010.0
20260507153610 18 138 3.2 9.7 0.00 0.00 0.00 85 1010.0
20260507153509 18 116 3.2 9.7 0.00 0.00 0.00 85 1009.9
20260507153410 18 101 3.2 9.7 0.00 0.00 0.00 85 1010.0
20260507153310 18 92 4.8 11.3 0.00 0.00 0.00 85 1009.9
20260507153210 18 95 3.2 11.3 0.00 0.00 0.00 85 1009.9
20260507153110 18 100 3.2 11.3 0.00 0.00 0.00 85 1009.9
20260507153031 18 97 3.2 11.3 0.00 0.00 0.00 85 1010.0
20260507152910 18 95 3.2 11.3 0.00 0.00 0.00 85 1010.0
20260507152810 18 95 3.2 11.3 0.00 0.00 0.00 85 1010.0
20260507152710 18 114 3.2 11.3 0.00 0.00 0.00 85 1010.0
20260507152610 18 126 1.6 11.3 0.00 0.00 0.00 85 1009.9
20260507152510 18 129 4.8 11.3 0.00 0.00 0.00 86 1010.0
20260507152410 18 125 4.8 11.3 0.00 0.00 0.00 85 1010.1
20260507152310 18 129 4.8 11.3 0.00 0.00 0.00 86 1010.0
20260507152210 18 134 3.2 11.3 0.00 0.00 0.00 86 1010.1
20260507152110 18 130 3.2 11.3 0.00 0.00 0.00 86 1010.0
20260507152010 17 110 3.2 11.3 0.00 0.00 0.00 86 1010.0
20260507151910 17 89 3.2 11.3 0.00 0.00 0.00 86 1010.0
20260507151831 17 103 3.2 11.3 0.00 0.00 0.00 86 1010.1
20260507151710 17 98 1.6 11.3 0.00 0.00 0.00 86 1010.0
20260507151610 17 90 1.6 11.3 0.00 0.00 0.00 86 1010.0
20260507151510 17 79 3.2 11.3 0.00 0.00 0.00 86 1009.9
20260507151410 17 79 3.2 11.3 0.00 0.00 0.00 86 1009.8
20260507151309 17 90 3.2 11.3 0.00 0.00 0.00 86 1009.8
20260507151210 17 111 4.8 11.3 0.00 0.00 0.00 86 1009.8
20260507151110 17 106 3.2 9.7 0.00 0.00 0.00 86 1009.7
20260507151010 17 133 3.2 12.9 0.00 0.00 0.00 87 1009.8
20260507150910 17 143 4.8 12.9 0.00 0.00 0.00 87 1009.9
20260507150810 17 149 3.2 12.9 0.00 0.00 0.00 87 1010.0
20260507150710 17 162 1.6 12.9 0.00 0.00 0.00 87 1009.9
20260507150609 17 158 3.2 12.9 0.00 0.00 0.00 87 1009.8
20260507150510 17 153 3.2 12.9 0.00 0.00 0.00 87 1009.9
20260507150410 17 149 3.2 12.9 0.00 0.00 0.00 87 1009.7
20260507150331 17 147 3.2 12.9 0.00 0.00 0.00 87 1009.8
20260507150210 17 141 3.2 12.9 0.00 0.00 0.00 87 1009.7
20260507150131 17 136 3.2 12.9 0.00 0.00 0.00 87 1009.7
20260507150010 17 128 3.2 12.9 0.00 0.00 0.00 87 1009.5
20260507145910 17 126 1.6 11.3 0.00 0.00 0.00 88 1009.7
20260507145810 17 115 3.2 11.3 0.00 0.00 0.00 88 1009.7
20260507145710 17 108 3.2 11.3 0.00 0.00 0.00 88 1009.9
20260507145610 17 103 3.2 11.3 0.00 0.00 0.00 88 1009.8
20260507145510 17 96 3.2 11.3 0.00 0.00 0.00 88 1009.8
20260507145410 17 105 3.2 11.3 0.00 0.00 0.00 88 1009.8
20260507145310 17 96 1.6 11.3 0.00 0.00 0.00 88 1009.8
20260507145210 17 105 1.6 8.0 0.00 0.00 0.00 89 1009.8
20260507145110 17 0 0.0 8.0 0.00 0.00 0.00 89 1009.8
20260507145010 17 0 0.0 8.0 0.00 0.00 0.00 89 1009.8
20260507144910 17 109 1.6 8.0 0.00 0.00 0.00 89 1009.9
20260507144810 17 113 3.2 8.0 0.00 0.00 0.00 88 1009.8
20260507144710 17 130 1.6 8.0 0.00 0.00 0.00 89 1009.9
20260507144610 17 128 3.2 8.0 0.00 0.00 0.00 89 1009.8
20260507144510 17 212 0.0 6.4 0.00 0.00 0.00 90 1009.8
20260507144410 17 0 0.0 6.4 0.00 0.00 0.00 90 1009.9
20260507144310 17 222 0.0 8.0 0.00 0.00 0.00 90 1009.7
20260507144210 17 341 1.6 8.0 0.00 0.00 0.00 90 1009.7
20260507144110 17 358 1.6 8.0 0.00 0.00 0.00 90 1009.7
20260507144010 17 355 1.6 8.0 0.00 0.00 0.00 90 1009.8
20260507143910 17 15 0.0 8.0 0.00 0.00 0.00 91 1009.8
20260507143810 17 1 0.0 8.0 0.00 0.00 0.00 91 1009.8
20260507143710 17 7 1.6 8.0 0.00 0.00 0.00 91 1009.8
20260507143610 17 9 1.6 9.7 0.00 0.00 0.00 91 1009.7
20260507143510 17 28 3.2 9.7 0.00 0.00 0.00 90 1009.8
20260507143410 17 28 3.2 9.7 0.00 0.00 0.00 90 1009.7
20260507143310 17 23 3.2 9.7 0.00 0.00 0.00 91 1009.7
20260507143231 17 24 3.2 9.7 0.00 0.00 0.00 91 1009.7
20260507143109 17 22 1.6 9.7 0.00 0.00 0.00 91 1009.7
20260507143010 17 15 1.6 9.7 0.00 0.00 0.00 91 1009.7
20260507142931 17 11 1.6 9.7 0.00 0.00 0.00 91 1009.7
20260507142809 17 4 3.2 9.7 0.00 0.00 0.00 91 1009.8
20260507142710 17 358 3.2 9.7 0.00 0.00 0.00 91 1009.7
20260507142631 17 352 3.2 9.7 0.00 0.00 0.00 91 1009.7
20260507142509 17 320 3.2 9.7 0.00 0.00 0.00 91 1009.8
20260507142409 17 309 3.2 9.7 0.00 0.00 0.00 91 1009.7
20260507142310 17 287 3.2 9.7 0.00 0.00 0.00 91 1009.6
20260507142210 17 289 3.2 9.7 0.00 0.00 0.00 92 1009.8
20260507142110 17 266 1.6 6.4 0.00 0.00 0.00 92 1009.7
20260507142031 17 258 1.6 4.8 0.00 0.00 0.00 93 1009.7
20260507141931 17 237 0.0 4.8 0.00 0.00 0.00 93 1009.8
20260507141809 17 227 0.0 4.8 0.00 0.00 0.00 93 1009.7
20260507141710 17 220 0.0 4.8 0.00 0.00 0.00 93 1009.8
20260507141610 17 208 1.6 3.2 0.00 0.00 0.00 94 1009.7
20260507141509 17 0 0.0 3.2 0.00 0.00 0.00 94 1009.8
20260507141410 17 0 0.0 3.2 0.00 0.00 0.00 94 1009.6
20260507141310 17 0 0.0 3.2 0.00 0.00 0.00 95 1009.7
20260507141230 17 0 0.0 3.2 0.00 0.00 0.00 95 1009.7
20260507141110 17 0 0.0 3.2 0.00 0.00 0.00 96 1009.7
20260507141010 17 0 0.0 3.2 0.00 0.00 0.00 96 1009.6
20260507140909 17 0 0.0 3.2 0.00 0.00 0.00 97 1009.7
20260507140809 16 0 0.0 1.6 0.00 0.00 0.00 99 1009.6
20260507140710 16 0 0.0 3.2 0.00 0.00 0.00 99 1009.7
20260507140610 16 0 0.0 3.2 0.00 0.00 0.00 99 1009.7
20260507140510 16 0 0.0 3.2 0.00 0.00 0.00 99 1009.6
20260507140431 16 0 0.0 3.2 0.00 0.00 0.00 99 1009.6
20260507140310 16 0 0.0 3.2 0.00 0.00 0.00 100 1009.7
20260507140209 16 0 0.0 3.2 0.00 0.00 0.00 100 1009.8
20260507140110 16 0 0.0 4.8 0.00 0.00 0.00 100 1009.6
20260507140010 16 0 0.0 4.8 0.00 0.00 0.00 100 1009.7
20260507135910 16 0 0.0 4.8 0.00 0.00 0.00 100 1009.5
20260507135810 16 0 0.0 4.8 0.00 0.00 0.00 100 1009.5
20260507135710 15 0 0.0 4.8 0.00 0.00 0.00 100 1009.5
20260507135630 15 0 0.0 4.8 0.00 0.00 0.00 100 1009.5
20260507135510 15 0 0.0 4.8 0.00 0.00 0.00 100 1009.6
20260507135431 15 139 0.0 4.8 0.00 0.00 0.00 100 1009.5
20260507135309 15 141 1.6 4.8 0.00 0.00 0.00 100 1009.5
20260507135210 15 137 1.6 4.8 0.00 0.00 0.00 100 1009.6
20260507135131 15 134 1.6 4.8 0.00 0.00 0.00 100 1009.5
20260507135010 15 145 3.2 4.8 0.00 0.00 0.00 100 1009.5
20260507134910 15 152 1.6 4.8 0.00 0.00 0.00 100 1009.6
20260507134810 15 158 1.6 4.8 0.00 0.00 0.00 100 1009.5
20260507134710 15 160 0.0 4.8 0.00 0.00 0.00 100 1009.5
20260507134609 15 161 0.0 4.8 0.00 0.00 0.00 100 1009.4
20260507134510 15 159 1.6 4.8 0.00 0.00 0.00 100 1009.5
20260507134410 15 158 1.6 4.8 0.00 0.00 0.00 100 1009.5
20260507134309 15 154 3.2 4.8 0.00 0.00 0.00 100 1009.5
20260507134210 15 159 1.6 4.8 0.00 0.00 0.00 100 1009.4
20260507134110 15 164 1.6 4.8 0.00 0.00 0.00 100 1009.4
20260507134009 14 163 1.6 4.8 0.00 0.00 0.00 100 1009.5
20260507133910 14 173 1.6 3.2 0.00 0.00 0.00 100 1009.4
20260507133810 14 0 0.0 3.2 0.00 0.00 0.00 100 1009.1
20260507133709 14 180 1.6 3.2 0.00 0.00 0.00 100 1009.3
20260507133609 14 180 0.0 3.2 0.00 0.00 0.00 100 1009.4
20260507133510 14 0 0.0 3.2 0.00 0.00 0.00 100 1009.3
20260507133431 14 0 0.0 3.2 0.00 0.00 0.00 100 1009.3
20260507133310 14 0 0.0 3.2 0.00 0.00 0.00 100 1009.3
20260507133210 14 0 0.0 3.2 0.00 0.00 0.00 100 1009.1
20260507133110 14 0 0.0 3.2 0.00 0.00 0.00 100 1009.2
20260507133009 14 0 0.0 4.8 0.00 0.00 0.00 100 1009.2
20260507132910 14 0 0.0 4.8 0.00 0.00 0.00 100 1009.2
20260507132831 14 0 0.0 4.8 0.00 0.00 0.00 100 1009.1
20260507132730 14 0 0.0 4.8 0.00 0.00 0.00 100 1009.2
20260507132609 14 231 0.0 4.8 0.00 0.00 0.00 100 1009.1
20260507132510 14 240 1.6 4.8 0.00 0.00 0.00 100 1009.1
20260507132410 14 236 1.6 4.8 0.00 0.00 0.00 100 1009.1
20260507132309 14 233 1.6 4.8 0.00 0.00 0.00 100 1009.0
20260507132210 14 229 0.0 4.8 0.00 0.00 0.00 100 1009.1
20260507132130 14 229 0.0 4.8 0.00 0.00 0.00 100 1009.1
20260507132010 14 231 1.6 4.8 0.00 0.00 0.00 100 1009.1
20260507131910 14 245 1.6 4.8 0.00 0.00 0.00 100 1009.1
20260507131809 14 243 1.6 3.2 0.00 0.00 0.00 100 1009.1
20260507131709 14 238 1.6 4.8 0.00 0.00 0.00 100 1009.0
20260507131610 14 241 1.6 4.8 0.00 0.00 0.00 100 1008.9
20260507131510 14 239 1.6 4.8 0.00 0.00 0.00 100 1009.0
20260507131410 14 0 0.0 4.8 0.00 0.00 0.00 100 1009.0
20260507131309 14 0 0.0 4.8 0.00 0.00 0.00 100 1009.0
20260507131210 14 0 0.0 6.4 0.00 0.00 0.00 100 1009.0
20260507131109 14 0 0.0 6.4 0.00 0.00 0.00 100 1009.0
20260507131010 14 0 0.0 6.4 0.00 0.00 0.00 100 1008.9
20260507130910 14 265 1.6 9.7 0.00 0.00 0.00 100 1009.0
20260507130809 14 260 1.6 9.7 0.00 0.00 0.00 100 1009.0
20260507130731 14 261 1.6 9.7 0.00 0.00 0.00 100 1008.9
20260507130610 14 262 1.6 9.7 0.00 0.00 0.00 100 1009.0
20260507130510 14 258 1.6 9.7 0.00 0.00 0.00 100 1009.0
20260507130431 14 262 1.6 9.7 0.00 0.00 0.00 100 1009.0
20260507130331 14 248 1.6 9.7 0.00 0.00 0.00 100 1009.0
20260507130210 14 237 1.6 9.7 0.00 0.00 0.00 100 1008.8
20260507130130 14 228 1.6 9.7 0.00 0.00 0.00 100 1008.9
20260507130010 14 224 1.6 9.7 0.00 0.00 0.00 100 1008.9
20260507125910 14 204 3.2 9.7 0.00 0.00 0.00 100 1008.9
20260507125809 14 185 1.6 6.4 0.00 0.00 0.00 100 1008.9
20260507125710 14 195 0.0 4.8 0.00 0.00 0.00 100 1008.9
20260507125610 14 181 1.6 4.8 0.00 0.00 0.00 100 1008.9
20260507125510 14 168 1.6 4.8 0.00 0.00 0.00 100 1008.8
20260507125431 14 164 1.6 4.8 0.00 0.00 0.00 100 1008.8
20260507125310 14 0 0.0 4.8 0.00 0.00 0.00 100 1009.0
20260507125209 14 0 0.0 4.8 0.00 0.00 0.00 100 1009.0
20260507125109 14 152 1.6 4.8 0.00 0.00 0.00 100 1009.0
20260507125011 14 141 1.6 4.8 0.00 0.00 0.00 100 1009.0
20260507124930 14 143 1.6 4.8 0.00 0.00 0.00 100 1008.9
20260507124809 14 161 0.0 4.8 0.00 0.00 0.00 100 1009.0
20260507124731 14 163 1.6 4.8 0.00 0.00 0.00 100 1009.1
20260507124610 14 0 0.0 4.8 0.00 0.00 0.00 100 1008.9
20260507124530 14 0 0.0 4.8 0.00 0.00 0.00 100 1009.0
20260507124410 14 0 0.0 4.8 0.00 0.00 0.00 100 1009.1
20260507124331 14 0 0.0 4.8 0.00 0.00 0.00 100 1009.1
20260507124210 14 178 1.6 4.8 0.00 0.00 0.00 100 1009.0
20260507124110 14 188 0.0 4.8 0.00 0.00 0.00 100 1008.9
20260507124031 14 195 0.0 4.8 0.00 0.00 0.00 100 1009.0
20260507123909 14 0 0.0 3.2 0.00 0.00 0.00 100 1009.0
20260507123809 14 0 0.0 3.2 0.00 0.00 0.00 100 1008.7
20260507123710 14 192 1.6 3.2 0.00 0.00 0.00 100 1008.8
20260507123609 14 206 0.0 3.2 0.00 0.00 0.00 100 1008.8
20260507123509 14 0 0.0 3.2 0.00 0.00 0.00 100 1008.8
20260507123410 14 0 0.0 3.2 0.00 0.00 0.00 100 1008.8
20260507123309 14 0 0.0 4.8 0.00 0.00 0.00 100 1008.9
20260507123209 14 0 0.0 4.8 0.00 0.00 0.00 100 1008.9
20260507123110 14 0 0.0 4.8 0.00 0.00 0.00 100 1008.7
20260507123010 14 232 0.0 4.8 0.00 0.00 0.00 100 1008.8
20260507122909 13 239 0.0 4.8 0.00 0.00 0.00 100 1008.9
20260507122810 13 0 0.0 4.8 0.00 0.00 0.00 100 1008.8
20260507122710 13 250 1.6 4.8 0.00 0.00 0.00 100 1008.7
20260507122630 13 247 1.6 4.8 0.00 0.00 0.00 100 1008.7
20260507122510 13 215 1.6 4.8 0.00 0.00 0.00 100 1008.8
20260507122410 13 209 1.6 4.8 0.00 0.00 0.00 100 1008.8
20260507122309 13 0 0.0 3.2 0.00 0.00 0.00 100 1008.8
20260507122210 13 0 0.0 3.2 0.00 0.00 0.00 99 1008.8
20260507122110 13 0 0.0 3.2 0.00 0.00 0.00 99 1008.7
20260507122009 13 0 0.0 3.2 0.00 0.00 0.00 99 1008.9
20260507121910 14 0 0.0 4.8 0.00 0.00 0.00 99 1008.7
20260507121810 14 0 0.0 4.8 0.00 0.00 0.00 99 1008.7
20260507121709 14 0 0.0 8.0 0.00 0.00 0.00 99 1008.7
20260507121630 14 0 0.0 8.0 0.00 0.00 0.00 99 1008.9
20260507121510 14 0 0.0 8.0 0.00 0.00 0.00 98 1008.8
20260507121410 14 0 0.0 8.0 0.00 0.00 0.00 98 1008.9
20260507121330 14 0 0.0 8.0 0.00 0.00 0.00 98 1008.9
20260507121231 14 0 0.0 8.0 0.00 0.00 0.00 98 1008.8
20260507121131 15 0 0.0 8.0 0.00 0.00 0.00 98 1008.8
20260507121009 15 232 0.0 8.0 0.00 0.00 0.00 98 1008.8
20260507120931 15 234 1.6 8.0 0.00 0.00 0.00 99 1008.8
20260507120810 15 250 1.6 8.0 0.00 0.00 0.00 99 1008.8
20260507120709 15 258 3.2 8.0 0.00 0.00 0.00 99 1008.9
20260507120610 15 262 1.6 8.0 0.00 0.00 0.00 98 1008.8
20260507120510 15 263 1.6 6.4 0.00 0.00 0.00 98 1008.8
20260507120430 15 265 1.6 6.4 0.00 0.00 0.00 98 1008.9
20260507120309 15 274 3.2 6.4 0.00 0.00 0.00 98 1008.6
20260507120210 15 276 3.2 6.4 0.00 0.00 0.00 98 1008.7
20260507120109 15 260 1.6 6.4 0.00 0.00 0.00 98 1008.7
20260507120031 15 248 1.6 6.4 0.00 0.00 0.00 98 1008.7
20260507115910 15 243 3.2 6.4 0.00 0.00 0.00 98 1008.6
20260507115810 15 208 1.6 6.4 0.00 0.00 0.00 98 1008.6
20260507115710 15 204 1.6 4.8 0.00 0.00 0.00 98 1008.8
20260507115610 15 216 1.6 4.8 0.00 0.00 0.00 97 1008.6
20260507115531 15 185 1.6 4.8 0.00 0.00 0.00 97 1008.8
20260507115430 15 158 1.6 4.8 0.00 0.00 0.00 97 1008.7
20260507115330 15 179 1.6 4.8 0.00 0.00 0.00 97 1008.8
20260507115210 15 188 1.6 4.8 0.00 0.00 0.00 97 1008.8
20260507115109 15 0 0.0 3.2 0.00 0.00 0.00 97 1008.7
20260507115010 15 0 0.0 3.2 0.00 0.00 0.00 97 1008.7
20260507114931 15 0 0.0 3.2 0.00 0.00 0.00 97 1008.8
20260507114809 15 221 1.6 3.2 0.00 0.00 0.00 97 1008.7
20260507114709 15 212 0.0 4.8 0.00 0.00 0.00 96 1008.5
20260507114610 15 0 0.0 6.4 0.00 0.00 0.00 96 1008.7
20260507114509 15 0 0.0 6.4 0.00 0.00 0.00 96 1008.7
20260507114410 15 223 1.6 6.4 0.00 0.00 0.00 96 1008.8
20260507114309 15 245 1.6 6.4 0.00 0.00 0.00 96 1008.9
20260507114209 15 252 1.6 6.4 0.00 0.00 0.00 96 1008.7
20260507114130 15 248 0.0 6.4 0.00 0.00 0.00 96 1008.7
20260507114009 15 0 0.0 6.4 0.00 0.00 0.00 96 1008.6
20260507113931 15 0 0.0 6.4 0.00 0.00 0.00 96 1008.6
20260507113809 15 257 1.6 6.4 0.00 0.00 0.00 96 1008.6
20260507113731 15 256 1.6 6.4 0.00 0.00 0.00 96 1008.6
20260507113610 15 257 1.6 6.4 0.00 0.00 0.00 97 1008.7
20260507113509 15 263 3.2 6.4 0.00 0.00 0.00 97 1008.7
20260507113409 15 253 3.2 6.4 0.00 0.00 0.00 97 1008.5
20260507113310 15 237 3.2 6.4 0.00 0.00 0.00 97 1008.6
20260507113209 15 231 1.6 6.4 0.00 0.00 0.00 97 1008.6
20260507113109 15 231 1.6 6.4 0.00 0.00 0.00 97 1008.7
20260507113031 15 219 1.6 6.4 0.00 0.00 0.00 97 1008.8
20260507112909 15 201 3.2 6.4 0.00 0.00 0.00 97 1008.8
20260507112809 15 183 1.6 6.4 0.00 0.00 0.00 97 1008.5
20260507112710 15 0 0.0 4.8 0.00 0.00 0.00 96 1008.5
20260507112609 15 0 0.0 4.8 0.00 0.00 0.00 96 1008.9
20260507112510 15 0 0.0 4.8 0.00 0.00 0.00 97 1008.7
20260507112410 15 0 0.0 4.8 0.00 0.00 0.00 97 1009.0
20260507112310 15 0 0.0 4.8 0.00 0.00 0.00 97 1008.8
20260507112209 15 0 0.0 4.8 0.00 0.00 0.00 97 1009.0
20260507112109 15 159 1.6 4.8 0.00 0.00 0.00 97 1009.0
20260507112010 15 165 1.6 6.4 0.00 0.00 0.00 97 1008.7
20260507111909 15 179 0.0 6.4 0.00 0.00 0.00 97 1008.7
20260507111809 15 150 1.6 8.0 0.00 0.00 0.00 97 1008.8
20260507111710 15 110 1.6 8.0 0.00 0.00 0.00 97 1008.8
20260507111609 15 23 1.6 8.0 0.00 0.00 0.00 97 1008.6
20260507111510 15 45 1.6 8.0 0.00 0.00 0.00 97 1008.6
20260507111410 15 54 1.6 8.0 0.00 0.00 0.00 98 1008.6
20260507111309 14 52 1.6 8.0 0.00 0.00 0.00 98 1008.6
20260507111210 14 23 0.0 8.0 0.00 0.00 0.00 98 1008.6
20260507111110 14 357 1.6 8.0 0.00 0.00 0.00 98 1008.6
20260507111009 14 360 0.0 8.0 0.00 0.00 0.00 98 1008.6
20260507110909 14 8 3.2 8.0 0.00 0.00 0.00 98 1008.8
20260507110810 14 336 3.2 8.0 0.00 0.00 0.00 98 1008.7
20260507110710 14 292 0.0 4.8 0.00 0.00 0.00 98 1008.8
20260507110609 14 0 0.0 3.2 0.00 0.00 0.00 97 1008.8
20260507110510 14 0 0.0 3.2 0.00 0.00 0.00 97 1008.9
20260507110431 14 0 0.0 3.2 0.00 0.00 0.00 97 1008.7
20260507110309 14 0 0.0 3.2 0.00 0.00 0.00 97 1008.8
20260507110209 14 0 0.0 3.2 0.00 0.00 0.00 97 1008.8
20260507110110 14 0 0.0 3.2 0.00 0.00 0.00 97 1008.7
20260507110009 14 0 0.0 3.2 0.00 0.00 0.00 97 1008.8
20260507105909 14 0 0.0 3.2 0.00 0.00 0.00 97 1008.9
20260507105830 14 0 0.0 3.2 0.00 0.00 0.00 97 1008.8
20260507105709 14 0 0.0 3.2 0.00 0.00 0.00 97 1008.8
20260507105609 14 185 1.6 3.2 0.00 0.00 0.00 97 1008.9
20260507105510 14 0 0.0 3.2 0.00 0.00 0.00 96 1008.6
20260507105409 14 0 0.0 3.2 0.00 0.00 0.00 96 1008.7
20260507105310 14 0 0.0 3.2 0.00 0.00 0.00 96 1008.7
20260507105209 15 0 0.0 3.2 0.00 0.00 0.00 96 1008.8
20260507105110 15 0 0.0 3.2 0.00 0.00 0.00 96 1008.8
20260507105030 15 0 0.0 3.2 0.00 0.00 0.00 96 1008.8
20260507104909 15 0 0.0 3.2 0.00 0.00 0.00 96 1008.7
20260507104831 15 0 0.0 3.2 0.00 0.00 0.00 96 1008.9
20260507104709 15 0 0.0 3.2 0.00 0.00 0.00 96 1008.8
20260507104609 15 0 0.0 3.2 0.00 0.00 0.00 96 1008.8
20260507104510 15 0 0.0 3.2 0.00 0.00 0.00 96 1008.8
20260507104409 15 0 0.0 3.2 0.00 0.00 0.00 96 1008.9
20260507104331 15 0 0.0 3.2 0.00 0.00 0.00 96 1008.8
20260507104209 15 0 0.0 3.2 0.00 0.00 0.00 96 1008.9
20260507104109 15 0 0.0 3.2 0.00 0.00 0.00 96 1009.0
20260507104009 15 0 0.0 3.2 0.00 0.00 0.00 96 1008.8
20260507103910 15 0 0.0 3.2 0.00 0.00 0.00 96 1008.8
20260507103809 15 0 0.0 3.2 0.00 0.00 0.00 96 1008.8
20260507103709 15 0 0.0 3.2 0.00 0.00 0.00 96 1008.8
20260507103610 15 0 0.0 3.2 0.00 0.00 0.00 96 1008.7
20260507103531 15 0 0.0 3.2 0.00 0.00 0.00 96 1008.8
20260507103409 15 0 0.0 4.8 0.00 0.00 0.00 96 1008.8
20260507103310 15 0 0.0 4.8 0.00 0.00 0.00 96 1008.8
20260507103210 15 0 0.0 4.8 0.00 0.00 0.00 96 1008.8
20260507103109 15 190 0.0 4.8 0.00 0.00 0.00 96 1008.8
20260507103009 15 195 1.6 4.8 0.00 0.00 0.00 96 1008.8
20260507102910 15 196 0.0 4.8 0.00 0.00 0.00 96 1008.8
20260507102809 15 0 0.0 4.8 0.00 0.00 0.00 96 1008.7
20260507102731 15 202 0.0 4.8 0.00 0.00 0.00 97 1008.8
20260507102610 15 207 1.6 4.8 0.00 0.00 0.00 97 1008.8
20260507102509 15 200 1.6 4.8 0.00 0.00 0.00 97 1008.7
20260507102409 15 219 3.2 4.8 0.00 0.00 0.00 97 1008.7
20260507102309 15 214 1.6 4.8 0.00 0.00 0.00 97 1008.7
20260507102209 15 191 1.6 4.8 0.00 0.00 0.00 97 1008.8
20260507102109 15 189 0.0 4.8 0.00 0.00 0.00 97 1008.7
20260507102010 14 180 1.6 4.8 0.00 0.00 0.00 97 1008.7
20260507101910 14 230 1.6 3.2 0.00 0.00 0.00 97 1008.8
20260507101831 14 0 0.0 3.2 0.00 0.00 0.00 97 1008.8
20260507101709 14 0 0.0 3.2 0.00 0.00 0.00 97 1008.7
20260507101610 14 0 0.0 3.2 0.00 0.00 0.00 97 1008.6
20260507101509 14 0 0.0 3.2 0.00 0.00 0.00 96 1008.8
20260507101430 14 0 0.0 3.2 0.00 0.00 0.00 96 1008.8
20260507101331 14 0 0.0 3.2 0.00 0.00 0.00 96 1008.6
20260507101209 14 0 0.0 3.2 0.00 0.00 0.00 96 1008.8
20260507101109 14 0 0.0 3.2 0.00 0.00 0.00 96 1008.7
20260507101009 14 0 0.0 3.2 0.00 0.00 0.00 96 1008.7
20260507100909 14 202 1.6 3.2 0.00 0.00 0.00 96 1008.7
20260507100831 14 208 1.6 3.2 0.00 0.00 0.00 96 1008.7
20260507100709 14 204 0.0 3.2 0.00 0.00 0.00 96 1008.7
20260507100609 14 0 0.0 3.2 0.00 0.00 0.00 96 1008.7
20260507100509 14 0 0.0 1.6 0.00 0.00 0.00 95 1008.6
20260507100410 14 0 0.0 0.0 0.00 0.00 0.00 95 1008.6
20260507100310 15 0 0.0 0.0 0.00 0.00 0.00 95 1008.5
20260507100209 15 0 0.0 0.0 0.00 0.00 0.00 95 1008.6
20260507100110 15 0 0.0 0.0 0.00 0.00 0.00 95 1008.5
20260507100010 15 0 0.0 0.0 0.00 0.00 0.00 94 1008.5
20260507095909 15 0 0.0 0.0 0.00 0.00 0.00 94 1008.4
20260507095809 15 0 0.0 0.0 0.00 0.00 0.00 94 1008.5
20260507095710 15 0 0.0 0.0 0.00 0.00 0.00 94 1008.5
20260507095609 15 0 0.0 0.0 0.00 0.00 0.00 94 1008.5
20260507095531 15 0 0.0 0.0 0.00 0.00 0.00 93 1008.5
20260507095431 15 0 0.0 0.0 0.00 0.00 0.00 93 1008.5
20260507095309 15 0 0.0 0.0 0.00 0.00 0.00 93 1008.6
20260507095209 15 0 0.0 0.0 0.00 0.00 0.00 93 1008.5
20260507095109 15 0 0.0 0.0 0.00 0.00 0.00 93 1008.5
20260507095009 15 0 0.0 0.0 0.00 0.00 0.00 93 1008.4
20260507094909 15 0 0.0 0.0 0.00 0.00 0.00 93 1008.4
20260507094810 15 0 0.0 1.6 0.00 0.00 0.00 92 1008.3
20260507094709 15 0 0.0 1.6 0.00 0.00 0.00 92 1008.4
20260507094630 15 0 0.0 3.2 0.00 0.00 0.00 92 1008.6
20260507094509 15 0 0.0 3.2 0.00 0.00 0.00 92 1008.4
20260507094410 16 0 0.0 4.8 0.00 0.00 0.00 92 1008.3
20260507094309 16 0 0.0 4.8 0.00 0.00 0.00 92 1008.4
20260507094209 16 0 0.0 4.8 0.00 0.00 0.00 92 1008.5
20260507094109 16 0 0.0 4.8 0.00 0.00 0.00 92 1008.4
20260507094009 16 0 0.0 6.4 0.00 0.00 0.00 92 1008.5
20260507093909 16 0 0.0 6.4 0.00 0.00 0.00 92 1008.5
20260507093809 16 0 0.0 6.4 0.00 0.00 0.00 92 1008.4
20260507093709 16 221 1.6 6.4 0.00 0.00 0.00 92 1008.2
20260507093609 16 0 0.0 6.4 0.00 0.00 0.00 92 1008.2
20260507093509 16 200 1.6 6.4 0.00 0.00 0.00 92 1008.3
20260507093409 16 119 1.6 6.4 0.00 0.00 0.00 92 1008.3
20260507093309 16 13 1.6 11.3 0.00 0.00 0.00 92 1008.2
20260507093230 16 29 0.0 11.3 0.00 0.00 0.00 92 1008.3
20260507093109 16 54 1.6 11.3 0.00 0.00 0.00 92 1008.3
20260507093030 16 69 3.2 11.3 0.00 0.00 0.00 92 1008.2
20260507092909 16 29 3.2 11.3 0.00 0.00 0.00 92 1008.2
20260507092810 16 44 1.6 11.3 0.00 0.00 0.00 92 1008.2
20260507092709 16 121 1.6 11.3 0.00 0.00 0.00 92 1008.4
20260507092630 16 113 1.6 11.3 0.00 0.00 0.00 92 1008.3
20260507092509 16 102 3.2 11.3 0.00 0.00 0.00 92 1008.3
20260507092430 16 101 3.2 11.3 0.00 0.00 0.00 92 1008.4
20260507092309 16 132 3.2 11.3 0.00 0.00 0.00 92 1008.4
20260507092210 16 139 1.6 9.7 0.00 0.00 0.00 92 1008.2
20260507092109 16 139 0.0 9.7 0.00 0.00 0.00 92 1008.3
20260507092010 16 132 1.6 9.7 0.00 0.00 0.00 92 1008.2
20260507091909 16 133 1.6 9.7 0.00 0.00 0.00 92 1008.1
20260507091809 16 119 1.6 9.7 0.00 0.00 0.00 92 1008.2
20260507091709 16 111 4.8 9.7 0.00 0.00 0.00 92 1008.3
20260507091609 16 84 3.2 8.0 0.00 0.00 0.00 92 1008.2
20260507091510 16 91 1.6 8.0 0.00 0.00 0.00 92 1008.3
20260507091409 16 85 1.6 8.0 0.00 0.00 0.00 92 1008.4
20260507091309 16 82 1.6 8.0 0.00 0.00 0.00 92 1008.2
20260507091209 16 96 1.6 8.0 0.00 0.00 0.00 92 1008.2
20260507091109 16 74 1.6 8.0 0.00 0.00 0.00 92 1008.2
20260507091010 16 85 1.6 8.0 0.00 0.00 0.00 92 1008.2
20260507090931 16 84 3.2 8.0 0.00 0.00 0.00 92 1008.3
20260507090809 16 100 3.2 8.0 0.00 0.00 0.00 92 1008.3
20260507090709 16 103 3.2 8.0 0.00 0.00 0.00 92 1008.3
20260507090609 16 110 3.2 8.0 0.00 0.00 0.00 92 1008.3
20260507090509 16 120 1.6 8.0 0.00 0.00 0.00 92 1008.4
20260507090409 16 130 0.0 6.4 0.00 0.00 0.00 91 1008.5
20260507090330 16 127 1.6 6.4 0.00 0.00 0.00 91 1008.5
20260507090209 16 125 1.6 6.4 0.00 0.00 0.00 91 1008.5
20260507090110 16 113 1.6 6.4 0.00 0.00 0.00 91 1008.4
20260507090009 16 92 1.6 6.4 0.00 0.00 0.00 91 1008.5
20260507085909 16 75 1.6 6.4 0.00 0.00 0.00 91 1008.5
20260507085830 16 67 1.6 6.4 0.00 0.00 0.00 91 1008.4
20260507085709 16 51 1.6 6.4 0.00 0.00 0.00 91 1008.4
20260507085631 16 51 1.6 6.4 0.00 0.00 0.00 91 1008.5
20260507085509 16 57 0.0 6.4 0.00 0.00 0.00 91 1008.4
20260507085409 16 0 0.0 6.4 0.00 0.00 0.00 91 1008.6
20260507085310 16 0 0.0 6.4 0.00 0.00 0.00 91 1008.5
20260507085209 16 47 3.2 6.4 0.00 0.00 0.00 91 1008.5
20260507085109 16 42 3.2 6.4 0.00 0.00 0.00 91 1008.5
20260507085009 16 40 3.2 8.0 0.00 0.00 0.00 91 1008.4
20260507084909 16 6 3.2 8.0 0.00 0.00 0.00 91 1008.5
20260507084830 16 321 3.2 8.0 0.00 0.00 0.00 91 1008.4
20260507084710 16 258 1.6 8.0 0.00 0.00 0.00 91 1008.5
20260507084609 16 238 1.6 8.0 0.00 0.00 0.00 90 1008.4
20260507084509 16 244 1.6 9.7 0.00 0.00 0.00 90 1008.5
20260507084410 16 240 1.6 9.7 0.00 0.00 0.00 90 1008.4
20260507084309 16 217 0.0 9.7 0.00 0.00 0.00 90 1008.4
20260507084209 16 225 1.6 9.7 0.00 0.00 0.00 90 1008.4
20260507084109 16 234 3.2 9.7 0.00 0.00 0.00 90 1008.4
20260507084010 16 235 1.6 9.7 0.00 0.00 0.00 90 1008.4
20260507083909 16 211 1.6 9.7 0.00 0.00 0.00 90 1008.3
20260507083830 16 205 1.6 9.7 0.00 0.00 0.00 90 1008.3
20260507083709 16 170 3.2 9.7 0.00 0.00 0.00 90 1008.2
20260507083609 16 161 1.6 9.7 0.00 0.00 0.00 90 1008.2
20260507083531 16 150 1.6 9.7 0.00 0.00 0.00 90 1008.2
20260507083430 16 123 1.6 9.7 0.00 0.00 0.00 90 1008.3
20260507083309 16 68 3.2 11.3 0.00 0.00 0.00 90 1008.4
20260507083209 16 69 3.2 11.3 0.00 0.00 0.00 90 1008.4
20260507083110 16 66 1.6 11.3 0.00 0.00 0.00 90 1008.3
20260507083009 16 48 1.6 11.3 0.00 0.00 0.00 90 1008.4
20260507082909 16 33 1.6 12.9 0.00 0.00 0.00 90 1008.3
20260507082809 17 360 3.2 12.9 0.00 0.00 0.00 90 1008.5
20260507082709 17 339 3.2 12.9 0.00 0.00 0.00 90 1008.4
20260507082609 17 328 3.2 12.9 0.00 0.00 0.00 90 1008.4
20260507082509 17 329 3.2 12.9 0.00 0.00 0.00 90 1008.5
20260507082410 17 320 4.8 12.9 0.00 0.00 0.00 90 1008.5
20260507082309 17 319 1.6 12.9 0.00 0.00 0.00 89 1008.4
20260507082209 17 319 3.2 12.9 0.00 0.00 0.00 89 1008.4
20260507082109 17 310 1.6 12.9 0.00 0.00 0.00 89 1008.4
20260507082009 17 297 1.6 12.9 0.00 0.00 0.00 89 1008.4
20260507081909 17 289 3.2 12.9 0.00 0.00 0.00 89 1008.4
20260507081809 17 272 1.6 6.4 0.00 0.00 0.00 89 1008.4
20260507081730 17 248 1.6 6.4 0.00 0.00 0.00 89 1008.4
20260507081630 17 294 1.6 6.4 0.00 0.00 0.00 89 1008.5
20260507081531 17 241 3.2 6.4 0.00 0.00 0.00 89 1008.6
20260507081409 17 215 3.2 6.4 0.00 0.00 0.00 89 1008.5
20260507081330 17 207 1.6 6.4 0.00 0.00 0.00 88 1008.6
20260507081209 17 202 1.6 6.4 0.00 0.00 0.00 88 1008.5
20260507081130 17 208 0.0 6.4 0.00 0.00 0.00 88 1008.5
20260507081009 17 220 0.0 6.4 0.00 0.00 0.00 88 1008.6
20260507080909 17 226 1.6 9.7 0.00 0.00 0.00 88 1008.5
20260507080809 17 248 1.6 9.7 0.00 0.00 0.00 88 1008.6
20260507080730 17 259 1.6 9.7 0.00 0.00 0.00 88 1008.6
20260507080609 17 273 1.6 9.7 0.00 0.00 0.00 88 1008.4
20260507080510 17 320 1.6 9.7 0.00 0.00 0.00 88 1008.5
20260507080409 17 3 3.2 9.7 0.00 0.00 0.00 88 1008.5
20260507080331 17 10 3.2 9.7 0.00 0.00 0.00 88 1008.5
20260507080210 17 356 3.2 9.7 0.00 0.00 0.00 88 1008.6
20260507080130 17 3 3.2 9.7 0.00 0.00 0.00 87 1008.6
20260507080030 17 9 4.8 9.7 0.00 0.00 0.00 87 1008.5
20260507075910 17 23 3.2 9.7 0.00 0.00 0.00 87 1008.5
20260507075809 17 23 3.2 9.7 0.00 0.00 0.00 87 1008.5
20260507075709 17 26 1.6 8.0 0.00 0.00 0.00 87 1008.5
20260507075609 17 29 4.8 8.0 0.00 0.00 0.00 87 1008.3
20260507075509 17 348 1.6 6.4 0.00 0.00 0.00 87 1008.4
20260507075409 17 62 1.6 6.4 0.00 0.00 0.00 87 1008.4
20260507075309 17 128 3.2 6.4 0.00 0.00 0.00 87 1008.5
20260507075231 17 107 0.0 12.9 0.00 0.00 0.00 87 1008.4
20260507075109 17 0 0.0 12.9 0.00 0.00 0.00 87 1008.3
20260507075009 17 0 0.0 12.9 0.00 0.00 0.00 87 1008.4
20260507074930 17 0 0.0 12.9 0.00 0.00 0.00 87 1008.2
20260507074809 17 0 0.0 12.9 0.00 0.00 0.00 87 1008.2
20260507074709 17 9 1.6 12.9 0.00 0.00 0.00 87 1008.2
20260507074610 18 6 3.2 12.9 0.00 0.00 0.00 87 1008.2
20260507074509 18 7 3.2 12.9 0.00 0.00 0.00 86 1008.2
20260507074409 18 350 3.2 12.9 0.00 0.00 0.00 86 1008.3
20260507074330 18 349 3.2 12.9 0.00 0.00 0.00 86 1008.3
20260507074209 18 320 4.8 12.9 0.00 0.00 0.00 86 1008.2
20260507074109 18 285 1.6 12.9 0.00 0.00 0.00 86 1008.2
20260507074031 18 233 1.6 12.9 0.00 0.00 0.00 86 1008.0
20260507073909 18 158 6.4 12.9 0.00 0.00 0.00 86 1008.2
20260507073809 18 141 6.4 12.9 0.00 0.00 0.00 86 1008.0
20260507073730 18 131 4.8 12.9 0.00 0.00 0.00 86 1008.0
20260507073610 18 142 3.2 12.9 0.00 0.00 0.00 86 1008.1
20260507073509 18 136 1.6 12.9 0.00 0.00 0.00 86 1008.1
20260507073430 18 123 1.6 11.3 0.00 0.00 0.00 86 1008.2
20260507073309 18 106 3.2 11.3 0.00 0.00 0.00 86 1008.2
20260507073209 18 80 3.2 11.3 0.00 0.00 0.00 86 1008.2
20260507073109 18 72 4.8 11.3 0.00 0.00 0.00 86 1008.3
20260507073010 18 69 4.8 16.1 0.00 0.00 0.00 86 1008.2
20260507072909 18 60 3.2 16.1 0.00 0.00 0.00 86 1008.2
20260507072809 17 63 3.2 16.1 0.00 0.00 0.00 86 1008.2
20260507072709 17 68 3.2 16.1 0.00 0.00 0.00 86 1008.2
20260507072630 17 71 1.6 16.1 0.00 0.00 0.00 86 1008.1
20260507072509 17 69 3.2 16.1 0.00 0.00 0.00 86 1008.1
20260507072409 17 70 3.2 16.1 0.00 0.00 0.00 87 1008.1
20260507072330 17 76 3.2 16.1 0.00 0.00 0.00 87 1008.1
20260507072209 17 101 4.8 16.1 0.00 0.00 0.00 87 1008.0
20260507072109 17 125 6.4 16.1 0.00 0.00 0.00 87 1007.9
20260507072009 18 0 0.0 4.8 0.00 0.00 0.00 86 1008.0
20260507071909 18 0 0.0 4.8 0.00 0.00 0.00 86 1008.1
20260507071809 18 0 0.0 6.4 0.00 0.00 0.00 86 1008.0
20260507071710 18 0 0.0 12.9 0.00 0.00 0.00 86 1007.9
20260507071609 18 124 0.0 12.9 0.00 0.00 0.00 86 1007.8
20260507071509 18 120 1.6 12.9 0.00 0.00 0.00 86 1007.9
20260507071430 18 115 1.6 12.9 0.00 0.00 0.00 86 1007.9
20260507071309 18 110 1.6 12.9 0.00 0.00 0.00 86 1007.7
20260507071209 18 109 1.6 12.9 0.00 0.00 0.00 85 1007.7
20260507071109 18 109 1.6 12.9 0.00 0.00 0.00 85 1007.8
20260507071009 18 110 3.2 12.9 0.00 0.00 0.00 85 1007.8
20260507070909 18 115 3.2 12.9 0.00 0.00 0.00 85 1007.5
20260507070809 18 105 6.4 12.9 0.00 0.00 0.00 85 1007.7
20260507070730 18 110 3.2 12.9 0.00 0.00 0.00 85 1007.7
20260507070609 18 116 3.2 9.7 0.00 0.00 0.00 85 1007.5
20260507070509 18 119 3.2 9.7 0.00 0.00 0.00 85 1007.6
20260507070430 18 122 3.2 9.7 0.00 0.00 0.00 85 1007.6
20260507070309 18 127 3.2 9.7 0.00 0.00 0.00 85 1007.5
20260507070230 18 130 4.8 9.7 0.00 0.00 0.00 85 1007.5
20260507070109 18 128 1.6 9.7 0.00 0.00 0.00 85 1007.5
20260507070013 18 128 3.2 9.7 0.00 0.00 0.00 85 1007.4
20260507065912 18 128 4.8 9.7 0.00 0.00 0.00 85 1007.5
20260507065809 18 138 3.2 8.0 0.00 0.00 0.00 85 1007.5
20260507065709 18 146 3.2 8.0 0.00 0.00 0.00 85 1007.4
20260507065609 18 148 1.6 8.0 0.00 0.00 0.00 85 1007.3
20260507065509 18 148 1.6 8.0 0.00 0.00 0.00 85 1007.4
20260507065409 18 150 3.2 8.0 0.00 0.00 0.00 85 1007.4
20260507065309 18 153 3.2 8.0 0.00 0.00 0.00 85 1007.2
20260507065209 18 153 3.2 8.0 0.00 0.00 0.00 85 1007.1
20260507065109 18 155 1.6 8.0 0.00 0.00 0.00 85 1007.4
20260507065030 18 148 1.6 8.0 0.00 0.00 0.00 84 1007.4
20260507064909 18 118 3.2 14.5 0.00 0.00 0.00 84 1007.3
20260507064809 18 103 1.6 14.5 0.00 0.00 0.00 84 1007.3
20260507064709 18 92 1.6 14.5 0.00 0.00 0.00 84 1007.2
20260507064609 18 91 1.6 14.5 0.00 0.00 0.00 84 1007.3
20260507064509 18 92 0.0 14.5 0.00 0.00 0.00 83 1007.4
20260507064409 18 92 0.0 14.5 0.00 0.00 0.00 84 1007.4
20260507064309 18 91 1.6 14.5 0.00 0.00 0.00 84 1007.4
20260507064209 18 90 3.2 14.5 0.00 0.00 0.00 84 1007.3
20260507064130 18 89 3.2 14.5 0.00 0.00 0.00 84 1007.3
20260507064009 18 93 4.8 14.5 0.00 0.00 0.00 84 1007.3
20260507063909 18 113 4.8 14.5 0.00 0.00 0.00 84 1007.1
20260507063809 18 140 4.8 9.7 0.00 0.00 0.00 83 1007.2
20260507063709 18 172 3.2 9.7 0.00 0.00 0.00 83 1007.2
20260507063609 18 0 0.0 4.8 0.00 0.00 0.00 83 1007.1
20260507063509 18 0 0.0 6.4 0.00 0.00 0.00 83 1007.2
20260507063409 18 0 0.0 6.4 0.00 0.00 0.00 83 1007.2
20260507063309 18 0 0.0 6.4 0.00 0.00 0.00 83 1007.3
20260507063209 18 0 0.0 6.4 0.00 0.00 0.00 83 1007.3
20260507063109 18 0 0.0 6.4 0.00 0.00 0.00 83 1007.3
20260507063009 19 0 0.0 6.4 0.00 0.00 0.00 83 1007.3
20260507062910 19 258 1.6 6.4 0.00 0.00 0.00 83 1007.0
20260507062809 19 266 1.6 6.4 0.00 0.00 0.00 83 1007.2
20260507062709 19 263 1.6 6.4 0.00 0.00 0.00 83 1007.1
20260507062610 19 254 1.6 6.4 0.00 0.00 0.00 83 1007.1
20260507062509 19 244 1.6 6.4 0.00 0.00 0.00 83 1007.2
20260507062409 19 218 3.2 6.4 0.00 0.00 0.00 83 1007.3
20260507062309 19 220 1.6 6.4 0.00 0.00 0.00 83 1007.2
20260507062209 19 203 0.0 3.2 0.00 0.00 0.00 82 1007.2
20260507062130 19 206 0.0 3.2 0.00 0.00 0.00 82 1007.2
20260507062030 19 203 1.6 3.2 0.00 0.00 0.00 82 1007.2
20260507061909 19 171 1.6 6.4 0.00 0.00 0.00 82 1007.2
20260507061809 19 161 1.6 6.4 0.00 0.00 0.00 82 1007.2
20260507061709 19 162 1.6 9.7 0.00 0.00 0.00 82 1007.2
20260507061609 19 159 1.6 9.7 0.00 0.00 0.00 82 1007.2
20260507061509 19 160 1.6 9.7 0.00 0.00 0.00 81 1007.2
20260507061409 19 165 0.0 9.7 0.00 0.00 0.00 81 1007.3
20260507061310 19 167 1.6 9.7 0.00 0.00 0.00 81 1007.2
20260507061209 19 166 1.6 9.7 0.00 0.00 0.00 81 1007.3
20260507061130 19 164 1.6 9.7 0.00 0.00 0.00 81 1007.3
20260507061009 19 166 3.2 9.7 0.00 0.00 0.00 81 1007.5
20260507060909 19 169 1.6 9.7 0.00 0.00 0.00 81 1007.2
20260507060809 19 174 3.2 9.7 0.00 0.00 0.00 81 1007.4
20260507060709 19 174 1.6 6.4 0.00 0.00 0.00 81 1007.2
20260507060609 19 173 1.6 6.4 0.00 0.00 0.00 81 1007.4
20260507060509 19 171 1.6 6.4 0.00 0.00 0.00 81 1007.4
20260507060409 19 167 1.6 6.4 0.00 0.00 0.00 81 1007.4
20260507060309 19 170 1.6 6.4 0.00 0.00 0.00 81 1007.1
20260507060209 19 180 1.6 6.4 0.00 0.00 0.00 81 1007.3
20260507060109 19 159 1.6 12.9 0.00 0.00 0.00 81 1007.2
20260507060009 20 137 1.6 12.9 0.00 0.00 0.00 81 1007.2
20260507055909 20 148 0.0 12.9 0.00 0.00 0.00 80 1007.2
20260507055809 20 0 0.0 12.9 0.00 0.00 0.00 80 1007.1
20260507055709 20 0 0.0 12.9 0.00 0.00 0.00 80 1007.1
20260507055609 20 132 0.0 12.9 0.00 0.00 0.00 81 1007.2
20260507055509 20 137 1.6 12.9 0.00 0.00 0.00 81 1007.1
20260507055410 20 153 1.6 12.9 0.00 0.00 0.00 81 1007.1
20260507055309 20 146 1.6 12.9 0.00 0.00 0.00 81 1007.1
20260507055209 20 139 4.8 12.9 0.00 0.00 0.00 81 1007.1
20260507055109 20 173 3.2 11.3 0.00 0.00 0.00 81 1007.2
20260507055009 20 203 1.6 8.0 0.00 0.00 0.00 81 1007.2
20260507054909 20 222 0.0 8.0 0.00 0.00 0.00 81 1007.1
20260507054809 20 247 3.2 8.0 0.00 0.00 0.00 81 1007.0
20260507054709 20 269 1.6 8.0 0.00 0.00 0.00 81 1007.2
20260507054609 20 268 0.0 8.0 0.00 0.00 0.00 81 1007.2
20260507054509 20 256 1.6 8.0 0.00 0.00 0.00 81 1007.1
20260507054410 20 252 3.2 8.0 0.00 0.00 0.00 81 1007.0
20260507054309 19 227 3.2 8.0 0.00 0.00 0.00 81 1007.1
20260507054209 20 221 1.6 8.0 0.00 0.00 0.00 81 1007.0
20260507054109 20 245 1.6 8.0 0.00 0.00 0.00 81 1007.1
20260507054009 20 294 1.6 6.4 0.00 0.00 0.00 81 1007.1
20260507053909 20 301 3.2 6.4 0.00 0.00 0.00 81 1007.1
20260507053809 20 18 3.2 6.4 0.00 0.00 0.00 81 1007.0
20260507053709 20 343 1.6 9.7 0.00 0.00 0.00 81 1007.2
20260507053630 20 350 1.6 9.7 0.00 0.00 0.00 81 1007.2
20260507053509 20 316 1.6 9.7 0.00 0.00 0.00 81 1007.1
20260507053409 20 313 1.6 9.7 0.00 0.00 0.00 81 1007.2
20260507053309 20 314 1.6 9.7 0.00 0.00 0.00 81 1007.1
20260507053209 20 305 3.2 9.7 0.00 0.00 0.00 81 1007.2
20260507053109 20 321 3.2 11.3 0.00 0.00 0.00 81 1007.3
20260507053009 20 331 3.2 11.3 0.00 0.00 0.00 81 1007.2
20260507052909 20 294 1.6 11.3 0.00 0.00 0.00 81 1007.2
20260507052809 20 278 4.8 11.3 0.00 0.00 0.00 81 1007.4
20260507052709 20 272 3.2 11.3 0.00 0.00 0.00 81 1007.2
20260507052609 20 258 1.6 11.3 0.00 0.00 0.00 81 1007.3
20260507052509 20 245 1.6 11.3 0.00 0.00 0.00 81 1007.2
20260507052409 20 246 3.2 11.3 0.00 0.00 0.00 81 1007.2
20260507052309 20 226 3.2 11.3 0.00 0.00 0.00 80 1007.2
20260507052230 20 252 3.2 11.3 0.00 0.00 0.00 81 1007.2
20260507052130 20 235 4.8 11.3 0.00 0.00 0.00 81 1007.2
20260507052009 20 243 3.2 8.0 0.00 0.00 0.00 81 1007.3
20260507051909 20 247 3.2 6.4 0.00 0.00 0.00 81 1007.3
20260507051809 20 265 3.2 6.4 0.00 0.00 0.00 81 1007.3
20260507051709 20 245 1.6 6.4 0.00 0.00 0.00 81 1007.2
20260507051609 20 256 3.2 6.4 0.00 0.00 0.00 81 1007.2
20260507051509 20 281 1.6 6.4 0.00 0.00 0.00 81 1007.2
20260507051430 20 270 1.6 6.4 0.00 0.00 0.00 81 1007.2
20260507051309 20 277 3.2 6.4 0.00 0.00 0.00 81 1007.2
20260507051209 20 268 1.6 6.4 0.00 0.00 0.00 81 1007.2
20260507051109 20 267 1.6 6.4 0.00 0.00 0.00 81 1007.1
20260507051009 20 264 1.6 6.4 0.00 0.00 0.00 81 1007.2
20260507050930 20 264 0.0 4.8 0.00 0.00 0.00 81 1007.2
20260507050809 20 263 1.6 4.8 0.00 0.00 0.00 81 1007.2
20260507050709 20 265 1.6 4.8 0.00 0.00 0.00 81 1007.3
20260507050609 20 265 1.6 4.8 0.00 0.00 0.00 81 1007.2
20260507050509 20 257 3.2 6.4 0.00 0.00 0.00 80 1007.1
20260507050409 20 254 3.2 6.4 0.00 0.00 0.00 80 1007.1
20260507050309 20 254 3.2 6.4 0.00 0.00 0.00 80 1007.1
20260507050209 20 248 3.2 6.4 0.00 0.00 0.00 80 1007.1
20260507050109 20 240 3.2 6.4 0.00 0.00 0.00 80 1007.2
20260507050030 20 241 3.2 6.4 0.00 0.00 0.00 80 1007.2
20260507045909 20 256 1.6 14.5 0.00 0.00 0.00 80 1007.2
20260507045809 20 260 1.6 14.5 0.00 0.00 0.00 80 1007.3
20260507045709 20 265 1.6 14.5 0.00 0.00 0.00 80 1007.1
20260507045609 20 271 1.6 14.5 0.00 0.00 0.00 79 1007.2
20260507045509 20 281 3.2 14.5 0.00 0.00 0.00 79 1007.1
20260507045409 20 300 1.6 14.5 0.00 0.00 0.00 80 1007.2
20260507045309 20 298 1.6 14.5 0.00 0.00 0.00 79 1007.1
20260507045209 20 302 3.2 14.5 0.00 0.00 0.00 79 1007.2
20260507045130 20 312 3.2 14.5 0.00 0.00 0.00 79 1007.2
20260507045031 20 318 4.8 14.5 0.00 0.00 0.00 79 1007.4
20260507044909 20 345 1.6 12.9 0.00 0.00 0.00 79 1007.2
20260507044830 21 336 1.6 6.4 0.00 0.00 0.00 77 1007.1
20260507044709 21 311 1.6 6.4 0.00 0.00 0.00 77 1007.2
20260507044609 21 294 1.6 6.4 0.00 0.00 0.00 77 1007.1
20260507044509 21 285 1.6 6.4 0.00 0.00 0.00 77 1007.2
20260507044409 21 285 0.0 6.4 0.00 0.00 0.00 77 1007.1
20260507044309 21 288 3.2 6.4 0.00 0.00 0.00 77 1007.1
20260507044209 21 294 1.6 6.4 0.00 0.00 0.00 76 1007.3
20260507044109 21 288 1.6 6.4 0.00 0.00 0.00 76 1007.2
20260507044030 21 287 1.6 6.4 0.00 0.00 0.00 75 1007.2
20260507043930 21 282 3.2 6.4 0.00 0.00 0.00 75 1007.1
20260507043830 21 284 3.2 6.4 0.00 0.00 0.00 73 1007.2
20260507043730 21 284 3.2 6.4 0.00 0.00 0.00 72 1007.2
20260507043609 21 284 1.6 6.4 0.00 0.00 0.00 71 1007.1
20260507043509 21 284 3.2 6.4 0.00 0.00 0.00 71 1007.2
20260507043409 21 277 3.2 6.4 0.00 0.00 0.00 71 1007.3
20260507043330 21 272 3.2 6.4 0.00 0.00 0.00 71 1007.1
20260507043251 21 271 1.6 6.4 0.00 0.00 0.00 71 1007.1
20260507043109 21 262 1.6 6.4 0.00 0.00 0.00 71 1007.1
20260507043030 21 269 1.6 6.4 0.00 0.00 0.00 71 1007.1
20260507042909 21 278 3.2 6.4 0.00 0.00 0.00 71 1007.1
20260507042830 21 273 3.2 6.4 0.00 0.00 0.00 71 1007.1
20260507042730 20 255 1.6 4.8 0.00 0.00 0.00 72 1007.0
20260507042609 21 240 0.0 4.8 0.00 0.00 0.00 72 1007.0
20260507042509 21 0 0.0 4.8 0.00 0.00 0.00 72 1007.1
20260507042409 21 0 0.0 6.4 0.00 0.00 0.00 72 1007.1
20260507042309 21 263 0.0 6.4 0.00 0.00 0.00 72 1007.1
20260507042209 21 270 1.6 6.4 0.00 0.00 0.00 72 1007.1
20260507042109 21 271 1.6 6.4 0.00 0.00 0.00 72 1007.0
20260507042030 21 270 1.6 6.4 0.00 0.00 0.00 72 1007.1
20260507041909 21 267 1.6 6.4 0.00 0.00 0.00 72 1007.1
20260507041809 21 273 0.0 6.4 0.00 0.00 0.00 71 1007.0
20260507041709 21 276 1.6 6.4 0.00 0.00 0.00 71 1007.1
20260507041609 21 285 3.2 6.4 0.00 0.00 0.00 70 1007.0
20260507041509 21 276 3.2 6.4 0.00 0.00 0.00 70 1007.1
20260507041409 21 258 3.2 6.4 0.00 0.00 0.00 70 1007.1
20260507041309 21 244 1.6 6.4 0.00 0.00 0.00 71 1007.0
20260507041209 21 0 0.0 3.2 0.00 0.00 0.00 69 1007.0
20260507041109 21 0 0.0 3.2 0.00 0.00 0.00 69 1007.0
20260507041030 21 0 0.0 3.2 0.00 0.00 0.00 69 1006.9
20260507040930 21 0 0.0 3.2 0.00 0.00 0.00 69 1006.9
20260507040809 21 0 0.0 3.2 0.00 0.00 0.00 68 1006.9
20260507040709 21 0 0.0 3.2 0.00 0.00 0.00 68 1006.8
20260507040609 22 0 0.0 3.2 0.00 0.00 0.00 68 1007.0
20260507040509 22 212 1.6 3.2 0.00 0.00 0.00 68 1006.9
20260507040409 22 207 0.0 3.2 0.00 0.00 0.00 67 1006.9
20260507040309 22 203 1.6 3.2 0.00 0.00 0.00 67 1006.8
20260507040209 22 0 0.0 3.2 0.00 0.00 0.00 66 1006.8
20260507040109 22 0 0.0 3.2 0.00 0.00 0.00 65 1006.7
20260507040009 22 0 0.0 3.2 0.00 0.00 0.00 65 1006.8
20260507035909 22 0 0.0 3.2 0.00 0.00 0.00 64 1006.7
20260507035809 22 0 0.0 3.2 0.00 0.00 0.00 64 1006.7
20260507035709 22 0 0.0 3.2 0.00 0.00 0.00 64 1006.8
20260507035630 22 162 0.0 3.2 0.00 0.00 0.00 64 1006.6
20260507035530 22 165 0.0 3.2 0.00 0.00 0.00 64 1006.8
20260507035409 22 0 0.0 3.2 0.00 0.00 0.00 64 1006.6
20260507035309 22 0 0.0 3.2 0.00 0.00 0.00 64 1006.6
20260507035230 22 0 0.0 3.2 0.00 0.00 0.00 64 1006.6
20260507035109 22 0 0.0 3.2 0.00 0.00 0.00 64 1006.6
20260507035009 22 0 0.0 3.2 0.00 0.00 0.00 64 1006.6
20260507034909 22 0 0.0 3.2 0.00 0.00 0.00 64 1006.6
20260507034830 22 0 0.0 3.2 0.00 0.00 0.00 64 1006.5
20260507034709 22 0 0.0 3.2 0.00 0.00 0.00 64 1006.6
20260507034609 22 0 0.0 3.2 0.00 0.00 0.00 64 1006.6
20260507034530 23 0 0.0 3.2 0.00 0.00 0.00 64 1006.5
20260507034409 23 179 0.0 3.2 0.00 0.00 0.00 64 1006.5
20260507034330 23 179 1.6 3.2 0.00 0.00 0.00 64 1006.5
20260507034209 23 172 0.0 3.2 0.00 0.00 0.00 64 1006.5
20260507034109 23 0 0.0 3.2 0.00 0.00 0.00 64 1006.5
20260507034009 23 0 0.0 3.2 0.00 0.00 0.00 63 1006.5
20260507033909 23 0 0.0 3.2 0.00 0.00 0.00 63 1006.5
20260507033809 23 0 0.0 3.2 0.00 0.00 0.00 63 1006.5
20260507033709 23 167 1.6 3.2 0.00 0.00 0.00 63 1006.5
20260507033609 23 162 1.6 3.2 0.00 0.00 0.00 63 1006.3
20260507033509 23 161 1.6 3.2 0.00 0.00 0.00 63 1006.4
20260507033409 23 0 0.0 3.2 0.00 0.00 0.00 63 1006.4
20260507033330 23 0 0.0 3.2 0.00 0.00 0.00 63 1006.3
20260507033209 23 0 0.0 4.8 0.00 0.00 0.00 63 1006.3
20260507033109 23 0 0.0 4.8 0.00 0.00 0.00 63 1006.2
20260507033009 23 0 0.0 4.8 0.00 0.00 0.00 63 1006.2
20260507032909 23 0 0.0 4.8 0.00 0.00 0.00 63 1006.3
20260507032809 23 166 1.6 4.8 0.00 0.00 0.00 63 1006.4
20260507032709 23 164 1.6 4.8 0.00 0.00 0.00 63 1006.2
20260507032609 23 164 1.6 4.8 0.00 0.00 0.00 63 1006.3
20260507032509 23 162 1.6 4.8 0.00 0.00 0.00 63 1006.2
20260507032409 23 161 1.6 4.8 0.00 0.00 0.00 63 1006.2
20260507032309 23 162 1.6 4.8 0.00 0.00 0.00 63 1006.1
20260507032209 24 160 1.6 4.8 0.00 0.00 0.00 62 1006.4
20260507032109 24 161 1.6 4.8 0.00 0.00 0.00 62 1006.1
20260507032009 24 162 1.6 4.8 0.00 0.00 0.00 62 1006.1
20260507031909 24 161 1.6 4.8 0.00 0.00 0.00 62 1006.1
20260507031809 24 159 1.6 4.8 0.00 0.00 0.00 62 1006.2
20260507031709 24 162 1.6 4.8 0.00 0.00 0.00 62 1006.0
20260507031609 24 168 1.6 4.8 0.00 0.00 0.00 61 1006.0
20260507031509 24 174 1.6 4.8 0.00 0.00 0.00 61 1006.1
20260507031430 24 180 1.6 4.8 0.00 0.00 0.00 62 1006.0
20260507031309 24 180 0.0 4.8 0.00 0.00 0.00 61 1005.8
20260507031209 24 0 0.0 3.2 0.00 0.00 0.00 61 1005.8
20260507031109 25 0 0.0 3.2 0.00 0.00 0.00 61 1005.9
20260507031009 25 0 0.0 3.2 0.00 0.00 0.00 61 1006.0
20260507030909 25 0 0.0 3.2 0.00 0.00 0.00 61 1006.0
20260507030830 25 0 0.0 3.2 0.00 0.00 0.00 61 1005.9
20260507030709 25 180 0.0 4.8 0.00 0.00 0.00 61 1005.9
20260507030609 25 180 1.6 4.8 0.00 0.00 0.00 61 1006.0
20260507030509 25 180 0.0 4.8 0.00 0.00 0.00 61 1006.0
20260507030430 25 0 0.0 4.8 0.00 0.00 0.00 61 1006.0
20260507030309 25 0 0.0 4.8 0.00 0.00 0.00 60 1005.8
20260507030209 25 0 0.0 4.8 0.00 0.00 0.00 60 1005.8
20260507030109 25 175 1.6 4.8 0.00 0.00 0.00 60 1005.7
20260507030009 25 175 1.6 4.8 0.00 0.00 0.00 60 1005.8
20260507025909 25 0 0.0 4.8 0.00 0.00 0.00 60 1005.6
20260507025830 25 170 0.0 4.8 0.00 0.00 0.00 60 1005.7
20260507025730 25 169 1.6 4.8 0.00 0.00 0.00 60 1005.7
20260507025609 25 0 0.0 3.2 0.00 0.00 0.00 60 1005.7
20260507025509 25 0 0.0 3.2 0.00 0.00 0.00 60 1005.6
20260507025409 25 0 0.0 3.2 0.00 0.00 0.00 60 1005.6
20260507025309 25 0 0.0 3.2 0.00 0.00 0.00 59 1005.6
20260507025209 25 0 0.0 3.2 0.00 0.00 0.00 59 1005.5
20260507025109 25 0 0.0 3.2 0.00 0.00 0.00 59 1005.6
20260507025009 25 0 0.0 3.2 0.00 0.00 0.00 59 1005.5
20260507024909 25 0 0.0 4.8 0.00 0.00 0.00 59 1005.5
20260507024809 25 0 0.0 6.4 0.00 0.00 0.00 59 1005.6
20260507024709 25 0 0.0 6.4 0.00 0.00 0.00 59 1005.5
20260507024609 25 0 0.0 6.4 0.00 0.00 0.00 59 1005.6
20260507024509 26 0 0.0 6.4 0.00 0.00 0.00 59 1005.5
20260507024430 26 0 0.0 6.4 0.00 0.00 0.00 59 1005.5
20260507024309 26 0 0.0 6.4 0.00 0.00 0.00 59 1005.5
20260507024209 26 0 0.0 6.4 0.00 0.00 0.00 59 1005.5
20260507024130 26 157 0.0 6.4 0.00 0.00 0.00 59 1005.3
20260507024009 26 161 1.6 6.4 0.00 0.00 0.00 59 1005.5
20260507023909 26 167 1.6 6.4 0.00 0.00 0.00 59 1005.4
20260507023809 26 166 3.2 6.4 0.00 0.00 0.00 58 1005.5
20260507023709 26 161 1.6 6.4 0.00 0.00 0.00 58 1005.4
20260507023609 26 162 1.6 6.4 0.00 0.00 0.00 58 1005.5
20260507023509 26 162 1.6 6.4 0.00 0.00 0.00 58 1005.5
20260507023409 26 165 1.6 6.4 0.00 0.00 0.00 58 1005.4
20260507023309 26 167 1.6 6.4 0.00 0.00 0.00 58 1005.5
20260507023209 26 166 1.6 6.4 0.00 0.00 0.00 58 1005.3
20260507023109 26 159 1.6 6.4 0.00 0.00 0.00 58 1005.4
20260507023009 26 157 1.6 6.4 0.00 0.00 0.00 58 1005.3
20260507022909 26 152 1.6 6.4 0.00 0.00 0.00 58 1005.3
20260507022809 26 148 1.6 6.4 0.00 0.00 0.00 58 1005.4
20260507022709 26 146 3.2 6.4 0.00 0.00 0.00 58 1005.5
20260507022609 26 141 1.6 6.4 0.00 0.00 0.00 58 1005.5
20260507022509 26 0 0.0 6.4 0.00 0.00 0.00 58 1005.4
20260507022409 26 141 1.6 6.4 0.00 0.00 0.00 58 1005.3
20260507022330 26 143 1.6 6.4 0.00 0.00 0.00 58 1005.3
20260507022209 26 149 3.2 8.0 0.00 0.00 0.00 57 1005.5
20260507022109 26 156 3.2 8.0 0.00 0.00 0.00 57 1005.4
20260507022009 26 155 3.2 8.0 0.00 0.00 0.00 57 1005.4
20260507021909 26 155 3.2 8.0 0.00 0.00 0.00 57 1005.5
20260507021830 26 159 3.2 8.0 0.00 0.00 0.00 57 1005.4
20260507021709 26 159 3.2 8.0 0.00 0.00 0.00 57 1005.5
20260507021609 26 160 3.2 8.0 0.00 0.00 0.00 57 1005.4
20260507021509 26 165 3.2 8.0 0.00 0.00 0.00 57 1005.3
20260507021409 26 168 3.2 8.0 0.00 0.00 0.00 57 1005.4
20260507021309 26 165 3.2 9.7 0.00 0.00 0.00 56 1005.3
20260507021209 27 166 3.2 11.3 0.00 0.00 0.00 57 1005.2
20260507021109 27 154 3.2 11.3 0.00 0.00 0.00 57 1005.4
20260507021009 27 156 3.2 11.3 0.00 0.00 0.00 57 1005.3
20260507020909 27 161 3.2 11.3 0.00 0.00 0.00 57 1005.4
20260507020830 27 162 3.2 11.3 0.00 0.00 0.00 56 1005.3
20260507020730 27 161 3.2 11.3 0.00 0.00 0.00 57 1005.2
20260507020609 27 169 3.2 11.3 0.00 0.00 0.00 57 1005.3
20260507020509 27 168 1.6 11.3 0.00 0.00 0.00 57 1005.3
20260507020409 27 167 1.6 11.3 0.00 0.00 0.00 58 1005.1
20260507020330 27 170 4.8 11.3 0.00 0.00 0.00 57 1005.1
20260507020209 27 163 4.8 11.3 0.00 0.00 0.00 58 1005.0
20260507020130 27 169 4.8 8.0 0.00 0.00 0.00 59 1005.0
20260507020030 27 176 3.2 6.4 0.00 0.00 0.00 60 1005.1
20260507015930 27 175 3.2 6.4 0.00 0.00 0.00 60 1005.2
20260507015830 27 174 3.2 6.4 0.00 0.00 0.00 62 1005.1
20260507015709 27 183 1.6 6.4 0.00 0.00 0.00 64 1005.0
20260507015609 27 172 1.6 6.4 0.00 0.00 0.00 65 1005.0
20260507015509 27 170 0.0 6.4 0.00 0.00 0.00 66 1005.1
20260507015409 27 171 0.0 6.4 0.00 0.00 0.00 66 1005.1
20260507015330 27 0 0.0 6.4 0.00 0.00 0.00 66 1005.0
20260507015209 27 0 0.0 6.4 0.00 0.00 0.00 66 1005.0
20260507015130 27 0 0.0 6.4 0.00 0.00 0.00 66 1005.0
20260507015030 27 0 0.0 6.4 0.00 0.00 0.00 66 1005.1
20260507014930 27 0 0.0 6.4 0.00 0.00 0.00 66 1005.0
20260507014809 27 151 1.6 8.0 0.00 0.00 0.00 66 1005.0
20260507014709 27 146 1.6 8.0 0.00 0.00 0.00 66 1005.0
20260507014609 27 0 0.0 8.0 0.00 0.00 0.00 67 1005.0
20260507014530 27 0 0.0 8.0 0.00 0.00 0.00 66 1005.1
20260507014409 27 81 1.6 16.1 0.00 0.00 0.00 66 1005.0
20260507014309 27 240 1.6 16.1 0.00 0.00 0.00 66 1005.0
20260507014209 27 9 1.6 17.7 0.00 0.00 0.00 66 1005.1
20260507014109 27 34 3.2 19.3 0.00 0.00 0.00 66 1004.9
20260507014030 27 60 3.2 19.3 0.00 0.00 0.00 66 1005.0
20260507013909 27 124 3.2 19.3 0.00 0.00 0.00 66 1004.9
20260507013809 27 123 3.2 19.3 0.00 0.00 0.00 66 1004.9
20260507013730 27 122 3.2 19.3 0.00 0.00 0.00 66 1004.9
20260507013609 27 122 3.2 19.3 0.00 0.00 0.00 66 1004.9
20260507013509 27 113 8.0 19.3 0.00 0.00 0.00 65 1005.0
20260507013409 27 114 4.8 19.3 0.00 0.00 0.00 66 1005.1
20260507013309 27 106 8.0 19.3 0.00 0.00 0.00 66 1005.0
20260507013209 27 111 8.0 19.3 0.00 0.00 0.00 65 1005.0
20260507013109 27 123 8.0 19.3 0.00 0.00 0.00 66 1005.2
20260507013009 27 124 8.0 19.3 0.00 0.00 0.00 66 1005.1
20260507012909 27 119 6.4 19.3 0.00 0.00 0.00 66 1005.1
20260507012830 27 119 6.4 17.7 0.00 0.00 0.00 66 1005.0
20260507012709 27 126 6.4 17.7 0.00 0.00 0.00 66 1005.0
20260507012609 27 125 11.3 17.7 0.00 0.00 0.00 66 1005.0
20260507012530 27 128 9.7 17.7 0.00 0.00 0.00 66 1005.0
20260507012409 27 143 4.8 16.1 0.00 0.00 0.00 65 1004.9
20260507012309 27 154 3.2 14.5 0.00 0.00 0.00 65 1005.0
20260507012230 27 158 4.8 14.5 0.00 0.00 0.00 65 1005.0
20260507012109 27 153 8.0 14.5 0.00 0.00 0.00 66 1005.1
20260507012009 27 144 4.8 14.5 0.00 0.00 0.00 66 1005.1
20260507011909 27 136 3.2 12.9 0.00 0.00 0.00 67 1005.1
20260507011809 27 116 3.2 14.5 0.00 0.00 0.00 67 1005.1
20260507011709 27 119 3.2 14.5 0.00 0.00 0.00 68 1005.1
20260507011609 27 118 3.2 14.5 0.00 0.00 0.00 68 1005.1
20260507011530 27 151 3.2 14.5 0.00 0.00 0.00 68 1005.1
20260507011409 27 203 4.8 14.5 0.00 0.00 0.00 68 1005.0
20260507011309 27 229 4.8 14.5 0.00 0.00 0.00 68 1005.0
20260507011209 27 249 3.2 14.5 0.00 0.00 0.00 68 1004.9
20260507011030 27 271 4.8 16.1 0.00 0.00 0.00 68 1004.5
20260507010909 27 265 6.4 16.1 0.00 0.00 0.00 68 1004.5
20260507010809 27 264 4.8 16.1 0.00 0.00 0.00 68 1004.3
20260507010709 27 264 4.8 16.1 0.00 0.00 0.00 68 1004.2
20260507010609 27 263 4.8 16.1 0.00 0.00 0.00 69 1004.2
20260507010530 27 274 4.8 16.1 0.00 0.00 0.00 69 1004.2
20260507010409 27 305 4.8 17.7 0.00 0.00 0.00 69 1004.1
20260507010309 27 326 4.8 17.7 0.00 0.00 0.00 69 1004.2
20260507010209 27 334 4.8 17.7 0.00 0.00 0.00 69 1004.2
20260507010130 27 338 6.4 17.7 0.00 0.00 0.00 68 1004.1
20260507010009 27 341 8.0 17.7 0.00 0.00 0.00 68 1004.2
20260507005909 27 346 8.0 17.7 0.00 0.00 0.00 68 1004.1
20260507005830 27 346 8.0 17.7 0.00 0.00 0.00 68 1004.2
20260507005709 27 328 6.4 17.7 0.00 0.00 0.00 68 1004.1
20260507005609 27 325 6.4 17.7 0.00 0.00 0.00 68 1004.2
20260507005509 27 323 6.4 17.7 0.00 0.00 0.00 68 1004.1
20260507005409 27 323 6.4 17.7 0.00 0.00 0.00 68 1004.2
20260507005309 27 323 4.8 17.7 0.00 0.00 0.00 68 1004.0
20260507005209 27 322 4.8 16.1 0.00 0.00 0.00 68 1004.2
20260507005109 27 314 4.8 16.1 0.00 0.00 0.00 68 1004.2
20260507005030 27 314 4.8 16.1 0.00 0.00 0.00 68 1004.2
20260507004909 27 324 6.4 16.1 0.00 0.00 0.00 68 1004.1
20260507004830 27 327 6.4 16.1 0.00 0.00 0.00 68 1004.1
20260507004730 27 339 6.4 16.1 0.00 0.00 0.00 68 1004.2
20260507004609 27 1 6.4 16.1 0.00 0.00 0.00 68 1004.2
20260507004509 27 3 6.4 17.7 0.00 0.00 0.00 68 1004.2
20260507004409 27 358 6.4 17.7 0.00 0.00 0.00 68 1004.2
20260507004309 27 352 6.4 17.7 0.00 0.00 0.00 68 1004.2
20260507004209 27 344 6.4 17.7 0.00 0.00 0.00 68 1004.2
20260507004109 27 352 6.4 17.7 0.00 0.00 0.00 68 1004.2
20260507004009 27 341 6.4 17.7 0.00 0.00 0.00 68 1004.1
20260507003930 27 274 4.8 17.7 0.00 0.00 0.00 68 1004.2
20260507003809 27 284 6.4 17.7 0.00 0.00 0.00 67 1004.2
20260507003709 27 308 4.8 17.7 0.00 0.00 0.00 67 1004.2
20260507003609 27 289 8.0 17.7 0.00 0.00 0.00 68 1004.2
20260507003530 27 281 6.4 17.7 0.00 0.00 0.00 68 1004.2
20260507003430 28 279 3.2 17.7 0.00 0.00 0.00 68 1004.2
20260507003330 28 289 3.2 17.7 0.00 0.00 0.00 68 1004.2
20260507003230 28 298 3.2 17.7 0.00 0.00 0.00 68 1004.1
20260507003130 28 305 3.2 17.7 0.00 0.00 0.00 68 1004.1
20260507003009 28 312 3.2 17.7 0.00 0.00 0.00 68 1004.1
20260507002930 28 309 4.8 17.7 0.00 0.00 0.00 68 1004.3
20260507002809 28 307 6.4 17.7 0.00 0.00 0.00 67 1004.1
20260507002709 28 302 8.0 17.7 0.00 0.00 0.00 67 1004.3
20260507002630 28 318 4.8 16.1 0.00 0.00 0.00 67 1004.4
20260507002509 28 339 4.8 16.1 0.00 0.00 0.00 67 1004.2
20260507002430 28 349 4.8 16.1 0.00 0.00 0.00 67 1004.2
20260507002309 28 13 4.8 16.1 0.00 0.00 0.00 67 1004.2
20260507002209 28 32 4.8 16.1 0.00 0.00 0.00 67 1004.2
20260507002109 28 47 4.8 16.1 0.00 0.00 0.00 67 1004.2
20260507002009 28 53 6.4 16.1 0.00 0.00 0.00 66 1004.1
20260507001909 28 58 4.8 17.7 0.00 0.00 0.00 66 1004.3
20260507001809 28 61 6.4 17.7 0.00 0.00 0.00 66 1004.3
20260507001709 28 65 6.4 17.7 0.00 0.00 0.00 66 1004.2
20260507001609 28 63 8.0 19.3 0.00 0.00 0.00 66 1004.2
20260507001509 28 74 8.0 19.3 0.00 0.00 0.00 66 1004.2
20260507001409 28 79 6.4 19.3 0.00 0.00 0.00 66 1004.3
20260507001330 28 86 4.8 19.3 0.00 0.00 0.00 65 1004.3
20260507001209 28 80 6.4 19.3 0.00 0.00 0.00 65 1004.2
20260507001130 28 79 6.4 19.3 0.00 0.00 0.00 65 1004.1
20260507001009 28 79 8.0 19.3 0.00 0.00 0.00 65 1004.2
20260507000909 28 67 4.8 19.3 0.00 0.00 0.00 64 1004.3
20260507000808 28 52 4.8 19.3 0.00 0.00 0.00 64 1004.3
20260507000709 28 36 6.4 19.3 0.00 0.00 0.00 64 1004.1
20260507000630 28 44 6.4 19.3 0.00 0.00 0.00 64 1004.1
20260507000530 28 357 6.4 17.7 0.00 0.00 0.00 64 1004.2
20260507000409 28 323 6.4 17.7 0.00 0.00 0.00 64 1004.3
20260507000309 28 339 4.8 17.7 0.00 0.00 0.00 64 1004.2
20260507000209 28 345 6.4 17.7 0.00 0.00 0.00 64 1004.2
20260507000130 28 5 4.8 17.7 0.00 0.00 0.00 64 1004.2
20260507000009 28 42 3.2 17.7 0.00 0.00 0.00 63 1004.1
20260506235909 28 351 6.4 17.7 0.00 0.00 0.00 63 1004.3
20260506235809 28 277 4.8 17.7 0.00 0.00 0.00 63 1004.2
20260506235709 28 328 3.2 17.7 0.00 0.00 0.00 63 1004.2
20260506235609 28 336 3.2 17.7 0.00 0.00 0.00 63 1004.2
20260506235509 28 347 6.4 17.7 0.00 0.00 0.00 63 1004.2
20260506235409 28 338 8.0 17.7 0.00 0.00 0.00 63 1004.2
20260506235309 29 319 4.8 16.1 0.00 0.00 0.00 63 1004.2
20260506235209 29 326 6.4 16.1 0.00 0.00 0.00 63 1004.2
20260506235130 29 330 6.4 16.1 0.00 0.00 0.00 62 1004.2
20260506235009 29 342 4.8 16.1 0.00 0.00 0.00 63 1004.2
20260506234908 29 345 8.0 16.1 0.00 0.00 0.00 63 1004.2
20260506234809 29 348 6.4 16.1 0.00 0.00 0.00 63 1004.1
20260506234709 29 345 6.4 16.1 0.00 0.00 0.00 63 1004.1
20260506234608 29 334 4.8 16.1 0.00 0.00 0.00 63 1004.0
20260506234530 29 323 6.4 16.1 0.00 0.00 0.00 63 1004.1
20260506234409 29 326 4.8 16.1 0.00 0.00 0.00 63 1004.1
20260506234309 29 332 4.8 16.1 0.00 0.00 0.00 63 1004.2
20260506234209 29 313 6.4 16.1 0.00 0.00 0.00 63 1004.1
20260506234109 29 305 6.4 16.1 0.00 0.00 0.00 63 1004.1
20260506234009 29 300 4.8 16.1 0.00 0.00 0.00 63 1004.2
20260506233909 29 299 4.8 16.1 0.00 0.00 0.00 63 1004.1
20260506233809 29 300 4.8 16.1 0.00 0.00 0.00 63 1004.3
20260506233709 29 308 4.8 16.1 0.00 0.00 0.00 63 1004.1
20260506233608 29 318 6.4 16.1 0.00 0.00 0.00 63 1004.1
20260506233530 30 326 6.4 12.9 0.00 0.00 0.00 63 1004.2
20260506233409 30 330 6.4 12.9 0.00 0.00 0.00 64 1004.2
20260506233308 30 339 6.4 12.9 0.00 0.00 0.00 63 1004.2
20260506233209 30 349 4.8 12.9 0.00 0.00 0.00 63 1004.3
20260506233109 30 346 3.2 16.1 0.00 0.00 0.00 63 1004.3
20260506233008 30 339 3.2 16.1 0.00 0.00 0.00 63 1004.3
20260506232909 30 336 4.8 16.1 0.00 0.00 0.00 63 1004.4
20260506232830 30 329 4.8 16.1 0.00 0.00 0.00 62 1004.4
20260506232709 30 317 4.8 19.3 0.00 0.00 0.00 62 1004.4
20260506232609 30 310 4.8 19.3 0.00 0.00 0.00 62 1004.3
20260506232509 30 312 4.8 19.3 0.00 0.00 0.00 62 1004.4
20260506232430 30 318 3.2 19.3 0.00 0.00 0.00 62 1004.3
20260506232330 30 322 3.2 19.3 0.00 0.00 0.00 62 1004.2
20260506232209 30 317 4.8 19.3 0.00 0.00 0.00 62 1004.3
20260506232109 30 325 4.8 19.3 0.00 0.00 0.00 62 1004.4
20260506232009 30 326 3.2 19.3 0.00 0.00 0.00 62 1004.3
20260506231909 30 329 6.4 19.3 0.00 0.00 0.00 61 1004.4
20260506231830 30 330 8.0 19.3 0.00 0.00 0.00 61 1004.4
20260506231730 30 337 6.4 19.3 0.00 0.00 0.00 60 1004.4
20260506231609 30 343 8.0 19.3 0.00 0.00 0.00 60 1004.4
20260506231509 31 345 8.0 19.3 0.00 0.00 0.00 60 1004.3
20260506231430 31 345 8.0 19.3 0.00 0.00 0.00 60 1004.3
20260506231330 31 351 6.4 19.3 0.00 0.00 0.00 60 1004.4
20260506231209 31 8 6.4 19.3 0.00 0.00 0.00 60 1004.4
20260506231109 31 360 8.0 19.3 0.00 0.00 0.00 60 1004.4
20260506231030 31 9 8.0 19.3 0.00 0.00 0.00 60 1004.4
20260506230909 31 25 4.8 14.5 0.00 0.00 0.00 60 1004.6
20260506230830 31 27 6.4 14.5 0.00 0.00 0.00 60 1004.5
20260506230709 31 9 6.4 14.5 0.00 0.00 0.00 60 1004.6
20260506230609 31 47 4.8 12.9 0.00 0.00 0.00 60 1004.4
20260506230531 31 19 3.2 12.9 0.00 0.00 0.00 60 1004.6
20260506230408 31 249 4.8 16.1 0.00 0.00 0.00 60 1004.6
20260506230330 31 267 3.2 16.1 0.00 0.00 0.00 60 1004.4
20260506230209 31 287 4.8 16.1 0.00 0.00 0.00 60 1004.6
20260506230109 31 280 4.8 16.1 0.00 0.00 0.00 59 1004.5
20260506230009 31 266 4.8 16.1 0.00 0.00 0.00 59 1004.5
20260506225909 31 251 3.2 16.1 0.00 0.00 0.00 60 1004.7
20260506225809 31 273 3.2 16.1 0.00 0.00 0.00 59 1004.6
20260506225708 31 286 3.2 16.1 0.00 0.00 0.00 59 1004.7
20260506225609 31 306 3.2 16.1 0.00 0.00 0.00 59 1004.6
20260506225509 31 312 6.4 16.1 0.00 0.00 0.00 58 1004.7
20260506225408 31 322 6.4 16.1 0.00 0.00 0.00 58 1004.7
20260506225330 31 326 6.4 14.5 0.00 0.00 0.00 58 1004.6
20260506225230 31 318 4.8 14.5 0.00 0.00 0.00 59 1004.7
20260506225108 31 305 3.2 14.5 0.00 0.00 0.00 58 1004.7
20260506225009 31 301 3.2 14.5 0.00 0.00 0.00 58 1004.7
20260506224930 31 305 3.2 14.5 0.00 0.00 0.00 59 1004.7
20260506224808 31 303 3.2 14.5 0.00 0.00 0.00 59 1004.7
20260506224730 30 306 4.8 14.5 0.00 0.00 0.00 59 1004.7
20260506224609 30 307 3.2 14.5 0.00 0.00 0.00 59 1004.9
20260506224508 30 306 3.2 14.5 0.00 0.00 0.00 60 1004.8
20260506224409 30 303 3.2 14.5 0.00 0.00 0.00 60 1004.8
20260506224330 30 297 3.2 12.9 0.00 0.00 0.00 60 1004.8
20260506224208 30 308 4.8 12.9 0.00 0.00 0.00 61 1004.9
20260506224109 30 325 3.2 17.7 0.00 0.00 0.00 61 1004.9
20260506224009 30 342 3.2 17.7 0.00 0.00 0.00 61 1004.9
20260506223909 30 357 4.8 17.7 0.00 0.00 0.00 61 1004.8
20260506223808 30 5 3.2 17.7 0.00 0.00 0.00 61 1004.8
20260506223709 30 349 3.2 17.7 0.00 0.00 0.00 61 1004.9
20260506223609 29 324 3.2 17.7 0.00 0.00 0.00 60 1004.8
20260506223508 29 311 4.8 17.7 0.00 0.00 0.00 60 1004.8
20260506223409 29 300 4.8 17.7 0.00 0.00 0.00 60 1004.8
20260506223309 29 298 4.8 17.7 0.00 0.00 0.00 60 1004.8
20260506223230 29 316 8.0 17.7 0.00 0.00 0.00 60 1004.8
20260506223109 30 244 4.8 14.5 0.00 0.00 0.00 59 1004.8
20260506223030 30 231 4.8 14.5 0.00 0.00 0.00 59 1004.8
20260506222909 30 238 4.8 14.5 0.00 0.00 0.00 60 1004.9
20260506222809 30 241 4.8 14.5 0.00 0.00 0.00 60 1004.9
20260506222730 30 238 4.8 14.5 0.00 0.00 0.00 60 1004.9
20260506222608 30 255 6.4 14.5 0.00 0.00 0.00 59 1005.0
20260506222509 30 275 6.4 14.5 0.00 0.00 0.00 59 1005.0
20260506222409 30 301 4.8 14.5 0.00 0.00 0.00 59 1005.0
20260506222330 30 347 6.4 11.3 0.00 0.00 0.00 59 1005.0
20260506222208 30 289 3.2 9.7 0.00 0.00 0.00 59 1005.0
20260506222109 30 285 3.2 9.7 0.00 0.00 0.00 58 1005.1
20260506222009 30 299 4.8 11.3 0.00 0.00 0.00 58 1005.0
20260506221930 30 299 4.8 11.3 0.00 0.00 0.00 58 1005.2
20260506221809 30 305 4.8 11.3 0.00 0.00 0.00 59 1005.1
20260506221730 30 300 4.8 11.3 0.00 0.00 0.00 59 1005.2
20260506221609 30 306 3.2 12.9 0.00 0.00 0.00 59 1005.1
20260506221509 30 299 3.2 12.9 0.00 0.00 0.00 60 1005.2
20260506221430 30 291 3.2 12.9 0.00 0.00 0.00 60 1005.2
20260506221309 30 294 4.8 12.9 0.00 0.00 0.00 59 1005.1
20260506221209 30 295 3.2 12.9 0.00 0.00 0.00 60 1005.0
20260506221130 30 289 4.8 12.9 0.00 0.00 0.00 60 1005.1
20260506221009 30 282 4.8 12.9 0.00 0.00 0.00 59 1005.2
20260506220908 30 288 4.8 12.9 0.00 0.00 0.00 58 1005.2
20260506220809 30 287 4.8 12.9 0.00 0.00 0.00 58 1005.2
20260506220730 30 283 3.2 12.9 0.00 0.00 0.00 58 1005.2
20260506220609 30 277 4.8 12.9 0.00 0.00 0.00 58 1005.2
20260506220509 30 274 3.2 12.9 0.00 0.00 0.00 57 1005.0
20260506220409 31 294 8.0 12.9 0.00 0.00 0.00 57 1005.1
20260506220309 31 306 3.2 12.9 0.00 0.00 0.00 57 1005.1
20260506220209 31 341 4.8 12.9 0.00 0.00 0.00 57 1005.3
20260506220109 31 354 6.4 12.9 0.00 0.00 0.00 56 1005.3
20260506220009 31 344 4.8 12.9 0.00 0.00 0.00 57 1005.3
20260506215909 31 320 3.2 11.3 0.00 0.00 0.00 58 1005.4
20260506215809 31 320 3.2 11.3 0.00 0.00 0.00 58 1005.3
20260506215709 31 322 3.2 11.3 0.00 0.00 0.00 58 1005.4
20260506215609 31 320 3.2 11.3 0.00 0.00 0.00 57 1005.4
20260506215509 31 316 3.2 11.3 0.00 0.00 0.00 57 1005.4
20260506215408 31 309 4.8 11.3 0.00 0.00 0.00 57 1005.4
20260506215309 31 296 4.8 11.3 0.00 0.00 0.00 56 1005.4
20260506215230 31 282 3.2 11.3 0.00 0.00 0.00 56 1005.4
20260506215130 31 289 3.2 11.3 0.00 0.00 0.00 57 1005.4
20260506215030 31 284 3.2 11.3 0.00 0.00 0.00 58 1005.4
20260506214909 31 289 3.2 11.3 0.00 0.00 0.00 58 1005.4
20260506214809 31 293 3.2 11.3 0.00 0.00 0.00 58 1005.3
20260506214708 30 293 3.2 11.3 0.00 0.00 0.00 59 1005.4
20260506214609 30 288 4.8 17.7 0.00 0.00 0.00 60 1005.5
20260506214509 30 295 4.8 17.7 0.00 0.00 0.00 59 1005.5
20260506214409 30 306 3.2 17.7 0.00 0.00 0.00 61 1005.5
20260506214309 30 317 4.8 17.7 0.00 0.00 0.00 60 1005.5
20260506214230 30 318 3.2 17.7 0.00 0.00 0.00 61 1005.5
20260506214108 30 316 3.2 17.7 0.00 0.00 0.00 61 1005.6
20260506214009 30 323 3.2 17.7 0.00 0.00 0.00 61 1005.8
20260506213909 30 333 3.2 17.7 0.00 0.00 0.00 61 1005.4
20260506213808 30 343 3.2 17.7 0.00 0.00 0.00 61 1005.6
20260506213709 30 344 4.8 17.7 0.00 0.00 0.00 60 1005.6
20260506213609 30 347 6.4 17.7 0.00 0.00 0.00 60 1005.7
20260506213508 30 13 4.8 16.1 0.00 0.00 0.00 60 1005.7
20260506213408 30 8 4.8 16.1 0.00 0.00 0.00 60 1005.8
20260506213309 30 2 6.4 16.1 0.00 0.00 0.00 60 1005.8
20260506213209 30 15 6.4 16.1 0.00 0.00 0.00 59 1005.5
20260506213108 30 56 4.8 17.7 0.00 0.00 0.00 59 1005.6
20260506213009 30 344 6.4 17.7 0.00 0.00 0.00 59 1005.8
20260506212930 30 323 6.4 17.7 0.00 0.00 0.00 59 1005.8
20260506212808 30 303 4.8 17.7 0.00 0.00 0.00 58 1005.8
20260506212709 30 298 4.8 17.7 0.00 0.00 0.00 59 1005.8
20260506212609 30 318 6.4 17.7 0.00 0.00 0.00 58 1005.8
20260506212509 30 293 6.4 17.7 0.00 0.00 0.00 58 1005.8
20260506212409 30 265 4.8 17.7 0.00 0.00 0.00 59 1005.7
20260506212309 30 243 4.8 17.7 0.00 0.00 0.00 59 1005.6
20260506212209 30 262 8.0 17.7 0.00 0.00 0.00 60 1005.6
20260506212130 30 284 6.4 17.7 0.00 0.00 0.00 59 1005.6
20260506212009 30 280 3.2 14.5 0.00 0.00 0.00 60 1005.6
20260506211908 30 250 4.8 14.5 0.00 0.00 0.00 59 1005.6
20260506211830 30 251 4.8 14.5 0.00 0.00 0.00 59 1005.7
20260506211709 30 230 3.2 14.5 0.00 0.00 0.00 59 1005.8
20260506211609 30 226 3.2 12.9 0.00 0.00 0.00 59 1005.8
20260506211509 30 240 3.2 12.9 0.00 0.00 0.00 59 1005.9
20260506211408 30 277 4.8 12.9 0.00 0.00 0.00 59 1005.9
20260506211330 31 303 4.8 12.9 0.00 0.00 0.00 59 1005.9
20260506211208 31 343 4.8 12.9 0.00 0.00 0.00 59 1006.0
20260506211130 31 329 6.4 12.9 0.00 0.00 0.00 59 1006.0
20260506211009 31 7 4.8 12.9 0.00 0.00 0.00 58 1005.9
20260506210908 31 14 4.8 12.9 0.00 0.00 0.00 59 1005.9
20260506210809 31 12 6.4 12.9 0.00 0.00 0.00 59 1005.9
20260506210709 31 346 4.8 12.9 0.00 0.00 0.00 59 1005.9
20260506210608 31 344 4.8 12.9 0.00 0.00 0.00 59 1005.9
20260506210529 31 350 4.8 12.9 0.00 0.00 0.00 59 1005.9
20260506210409 31 6 4.8 12.9 0.00 0.00 0.00 60 1006.0
20260506210308 31 339 4.8 12.9 0.00 0.00 0.00 59 1006.0
20260506210208 31 339 3.2 12.9 0.00 0.00 0.00 60 1006.0
20260506210108 31 342 4.8 12.9 0.00 0.00 0.00 60 1006.1
20260506210009 30 316 6.4 12.9 0.00 0.00 0.00 60 1005.9
20260506205908 30 314 6.4 12.9 0.00 0.00 0.00 59 1006.1
20260506205809 30 325 6.4 12.9 0.00 0.00 0.00 59 1005.9
20260506205709 30 331 6.4 14.5 0.00 0.00 0.00 59 1005.9
20260506205608 30 327 4.8 14.5 0.00 0.00 0.00 59 1006.0
20260506205508 30 325 4.8 14.5 0.00 0.00 0.00 59 1006.0
20260506205409 30 333 3.2 14.5 0.00 0.00 0.00 59 1006.0
20260506205308 30 340 4.8 14.5 0.00 0.00 0.00 60 1006.1
20260506205230 30 342 3.2 14.5 0.00 0.00 0.00 59 1006.0
20260506205109 30 338 4.8 14.5 0.00 0.00 0.00 60 1006.0
20260506205008 30 342 3.2 14.5 0.00 0.00 0.00 59 1006.0
20260506204929 30 344 4.8 14.5 0.00 0.00 0.00 60 1006.0
20260506204809 30 351 4.8 14.5 0.00 0.00 0.00 59 1006.2
20260506204708 30 4 6.4 14.5 0.00 0.00 0.00 59 1006.0
20260506204609 30 3 6.4 16.1 0.00 0.00 0.00 59 1006.0
20260506204509 30 4 6.4 16.1 0.00 0.00 0.00 59 1006.1
20260506204430 30 349 4.8 16.1 0.00 0.00 0.00 59 1006.0
20260506204329 30 322 4.8 16.1 0.00 0.00 0.00 60 1006.1
20260506204209 31 247 4.8 16.1 0.00 0.00 0.00 59 1006.0
20260506204130 31 209 4.8 16.1 0.00 0.00 0.00 59 1006.0
20260506204009 31 151 3.2 16.1 0.00 0.00 0.00 60 1006.0
20260506203908 31 137 4.8 16.1 0.00 0.00 0.00 59 1005.9
20260506203809 31 133 3.2 16.1 0.00 0.00 0.00 60 1005.9
20260506203729 31 151 6.4 16.1 0.00 0.00 0.00 59 1005.8
20260506203609 31 122 6.4 14.5 0.00 0.00 0.00 57 1006.0
20260506203509 31 77 6.4 14.5 0.00 0.00 0.00 57 1006.0
20260506203408 31 73 4.8 14.5 0.00 0.00 0.00 58 1006.1
20260506203309 31 64 3.2 14.5 0.00 0.00 0.00 58 1006.1
20260506203209 31 51 4.8 14.5 0.00 0.00 0.00 59 1006.1
20260506203108 31 31 6.4 14.5 0.00 0.00 0.00 58 1006.0
20260506203009 31 11 4.8 14.5 0.00 0.00 0.00 58 1006.1
20260506202930 31 358 4.8 14.5 0.00 0.00 0.00 58 1006.3
20260506202809 31 338 4.8 12.9 0.00 0.00 0.00 58 1006.3
20260506202729 31 346 4.8 12.9 0.00 0.00 0.00 58 1006.3
20260506202609 31 343 4.8 12.9 0.00 0.00 0.00 59 1006.2
20260506202509 31 331 4.8 12.9 0.00 0.00 0.00 59 1006.3
20260506202429 31 321 3.2 12.9 0.00 0.00 0.00 59 1006.3
20260506202329 31 317 4.8 12.9 0.00 0.00 0.00 59 1006.2
20260506202230 31 306 3.2 12.9 0.00 0.00 0.00 59 1006.3
20260506202108 31 301 3.2 12.9 0.00 0.00 0.00 60 1006.3
20260506202009 31 308 3.2 12.9 0.00 0.00 0.00 60 1006.3
20260506201909 31 303 4.8 12.9 0.00 0.00 0.00 60 1006.3
20260506201829 31 286 6.4 12.9 0.00 0.00 0.00 60 1006.2
20260506201709 31 268 4.8 12.9 0.00 0.00 0.00 60 1006.2
20260506201609 31 189 3.2 12.9 0.00 0.00 0.00 59 1006.2
20260506201509 31 103 3.2 12.9 0.00 0.00 0.00 59 1006.3
20260506201408 31 125 3.2 12.9 0.00 0.00 0.00 59 1006.2
20260506201308 31 119 4.8 12.9 0.00 0.00 0.00 60 1006.3
20260506201209 30 90 3.2 12.9 0.00 0.00 0.00 60 1006.4
20260506201108 30 79 3.2 14.5 0.00 0.00 0.00 60 1006.4
20260506201009 30 61 4.8 14.5 0.00 0.00 0.00 59 1006.3
20260506200909 30 15 4.8 14.5 0.00 0.00 0.00 60 1006.5
20260506200809 31 10 6.4 14.5 0.00 0.00 0.00 60 1006.4
20260506200709 30 340 4.8 14.5 0.00 0.00 0.00 60 1006.4
20260506200609 30 340 4.8 14.5 0.00 0.00 0.00 61 1006.5
20260506200508 30 329 6.4 16.1 0.00 0.00 0.00 60 1006.4
20260506200408 30 337 4.8 16.1 0.00 0.00 0.00 60 1006.3
20260506200330 30 329 4.8 16.1 0.00 0.00 0.00 60 1006.3
20260506200208 30 318 6.4 16.1 0.00 0.00 0.00 60 1006.4
20260506200130 30 324 6.4 16.1 0.00 0.00 0.00 59 1006.4
20260506200009 30 12 3.2 16.1 0.00 0.00 0.00 57 1006.3
20260506195929 30 87 1.6 16.1 0.00 0.00 0.00 57 1006.3
20260506195829 30 88 3.2 16.1 0.00 0.00 0.00 58 1006.4
20260506195709 30 113 3.2 16.1 0.00 0.00 0.00 59 1006.5
20260506195609 30 150 4.8 16.1 0.00 0.00 0.00 60 1006.5
20260506195508 30 150 4.8 16.1 0.00 0.00 0.00 60 1006.4
20260506195409 30 147 4.8 16.1 0.00 0.00 0.00 60 1006.3
20260506195330 30 136 4.8 12.9 0.00 0.00 0.00 60 1006.4
20260506195229 30 115 6.4 12.9 0.00 0.00 0.00 60 1006.4
20260506195108 30 139 6.4 12.9 0.00 0.00 0.00 59 1006.5
20260506195009 30 138 4.8 12.9 0.00 0.00 0.00 59 1006.5
20260506194908 30 115 3.2 11.3 0.00 0.00 0.00 61 1006.5
20260506194808 30 105 4.8 12.9 0.00 0.00 0.00 61 1006.6
20260506194730 30 86 3.2 14.5 0.00 0.00 0.00 61 1006.6
20260506194608 30 67 1.6 14.5 0.00 0.00 0.00 61 1006.5
20260506194509 30 54 3.2 14.5 0.00 0.00 0.00 61 1006.5
20260506194409 29 40 3.2 14.5 0.00 0.00 0.00 61 1006.5
20260506194308 29 44 3.2 14.5 0.00 0.00 0.00 61 1006.5
20260506194208 29 45 4.8 14.5 0.00 0.00 0.00 61 1006.6
20260506194109 29 22 4.8 14.5 0.00 0.00 0.00 60 1006.6
20260506194009 29 31 4.8 14.5 0.00 0.00 0.00 61 1006.5
20260506193908 29 24 4.8 14.5 0.00 0.00 0.00 62 1006.6
20260506193809 29 17 4.8 14.5 0.00 0.00 0.00 62 1006.5
20260506193730 29 18 4.8 14.5 0.00 0.00 0.00 61 1006.5
20260506193608 29 11 1.6 14.5 0.00 0.00 0.00 62 1006.4
20260506193508 29 16 4.8 14.5 0.00 0.00 0.00 61 1006.5
20260506193409 28 5 4.8 14.5 0.00 0.00 0.00 62 1006.6
20260506193308 28 326 3.2 12.9 0.00 0.00 0.00 63 1006.5
20260506193209 28 302 3.2 12.9 0.00 0.00 0.00 63 1006.6
20260506193109 28 285 3.2 12.9 0.00 0.00 0.00 63 1006.6
20260506193008 28 280 1.6 12.9 0.00 0.00 0.00 65 1006.6
20260506192908 28 258 1.6 12.9 0.00 0.00 0.00 65 1006.8
20260506192809 28 255 3.2 12.9 0.00 0.00 0.00 67 1006.6
20260506192708 28 236 3.2 12.9 0.00 0.00 0.00 67 1006.7
20260506192608 28 229 3.2 14.5 0.00 0.00 0.00 68 1006.7
20260506192508 28 231 3.2 14.5 0.00 0.00 0.00 67 1006.6
20260506192409 27 226 4.8 14.5 0.00 0.00 0.00 68 1006.7
20260506192330 27 224 6.4 14.5 0.00 0.00 0.00 68 1006.7
20260506192229 27 219 3.2 14.5 0.00 0.00 0.00 68 1006.6
20260506192130 27 224 4.8 14.5 0.00 0.00 0.00 67 1006.6
20260506192029 27 210 4.8 14.5 0.00 0.00 0.00 67 1006.6
20260506191908 27 206 3.2 14.5 0.00 0.00 0.00 68 1006.7
20260506191809 27 203 6.4 14.5 0.00 0.00 0.00 68 1006.7
20260506191729 27 198 6.4 14.5 0.00 0.00 0.00 68 1006.8
20260506191630 27 172 4.8 14.5 0.00 0.00 0.00 68 1006.7
20260506191530 27 143 4.8 12.9 0.00 0.00 0.00 68 1006.6
20260506191408 27 124 4.8 22.5 0.00 0.00 0.00 68 1006.7
20260506191309 27 91 4.8 22.5 0.00 0.00 0.00 68 1006.7
20260506191209 27 98 3.2 22.5 0.00 0.00 0.00 68 1006.7
20260506191108 27 100 3.2 22.5 0.00 0.00 0.00 68 1006.6
20260506191008 27 92 4.8 22.5 0.00 0.00 0.00 68 1006.7
20260506190909 27 89 4.8 22.5 0.00 0.00 0.00 68 1006.8
20260506190809 27 95 3.2 22.5 0.00 0.00 0.00 70 1006.7
20260506190708 27 90 4.8 22.5 0.00 0.00 0.00 69 1006.8
20260506190629 27 89 4.8 22.5 0.00 0.00 0.00 69 1006.8
20260506190509 27 89 6.4 22.5 0.00 0.00 0.00 68 1006.8
20260506190408 27 55 6.4 17.7 0.00 0.00 0.00 69 1006.9
20260506190308 27 57 6.4 16.1 0.00 0.00 0.00 70 1006.9
20260506190209 27 30 6.4 16.1 0.00 0.00 0.00 70 1006.9
20260506190129 27 359 6.4 16.1 0.00 0.00 0.00 70 1006.9
20260506190009 27 319 6.4 16.1 0.00 0.00 0.00 70 1006.9
20260506185909 27 317 4.8 16.1 0.00 0.00 0.00 70 1006.7
20260506185808 27 309 4.8 16.1 0.00 0.00 0.00 70 1006.9
20260506185708 27 325 6.4 16.1 0.00 0.00 0.00 69 1006.9
20260506185630 27 320 4.8 16.1 0.00 0.00 0.00 69 1006.9
20260506185508 26 327 3.2 16.1 0.00 0.00 0.00 70 1007.0
20260506185408 26 319 6.4 16.1 0.00 0.00 0.00 70 1006.9
20260506185330 26 315 4.8 14.5 0.00 0.00 0.00 71 1006.8
20260506185231 26 316 4.8 14.5 0.00 0.00 0.00 71 1006.8
20260506185108 26 317 6.4 14.5 0.00 0.00 0.00 70 1006.9
20260506185030 26 355 4.8 16.1 0.00 0.00 0.00 70 1006.8
20260506184909 26 36 4.8 16.1 0.00 0.00 0.00 71 1006.8
20260506184808 26 13 6.4 16.1 0.00 0.00 0.00 71 1006.9
20260506184730 26 3 6.4 16.1 0.00 0.00 0.00 71 1006.9
20260506184609 26 77 3.2 16.1 0.00 0.00 0.00 72 1006.8
20260506184508 26 15 1.6 16.1 0.00 0.00 0.00 72 1006.8
20260506184408 26 15 3.2 16.1 0.00 0.00 0.00 72 1006.9
20260506184308 26 353 4.8 16.1 0.00 0.00 0.00 72 1007.1
20260506184208 26 353 4.8 17.7 0.00 0.00 0.00 72 1006.8
20260506184109 26 350 6.4 17.7 0.00 0.00 0.00 73 1006.9
20260506184008 26 347 6.4 17.7 0.00 0.00 0.00 72 1007.0
20260506183908 26 346 8.0 17.7 0.00 0.00 0.00 72 1006.9
20260506183808 26 350 8.0 17.7 0.00 0.00 0.00 72 1007.0
20260506183709 26 344 6.4 17.7 0.00 0.00 0.00 72 1006.9
20260506183608 26 339 6.4 17.7 0.00 0.00 0.00 72 1006.9
20260506183508 26 345 4.8 17.7 0.00 0.00 0.00 73 1006.9
20260506183408 26 342 4.8 17.7 0.00 0.00 0.00 73 1006.8
20260506183308 26 347 6.4 17.7 0.00 0.00 0.00 71 1006.9
20260506183229 26 346 4.8 17.7 0.00 0.00 0.00 71 1006.9
20260506183108 26 347 4.8 14.5 0.00 0.00 0.00 72 1007.0
20260506183009 26 350 3.2 14.5 0.00 0.00 0.00 72 1006.9
20260506182929 26 330 4.8 16.1 0.00 0.00 0.00 72 1006.9
20260506182809 25 348 6.4 16.1 0.00 0.00 0.00 74 1007.0
20260506182709 25 355 4.8 16.1 0.00 0.00 0.00 74 1006.9